| time (UTC) | temp C | wind direction | speed KPH | gust KPH | rain 1hr cm | rain 24hr cm | rain mn cm | humidity % | barometer mb |
| 20260507052352 | 10 | 339 | 6.4 | 8.0 | 0.00 | 0.00 | 0.00 | 34 | 814.6 |
| 20260507052243 | 10 | 337 | 8.0 | 9.7 | 0.00 | 0.00 | 0.00 | 34 | 814.6 |
| 20260507052132 | 9 | 339 | 6.4 | 9.7 | 0.00 | 0.00 | 0.00 | 35 | 814.6 |
| 20260507052022 | 9 | 341 | 8.0 | 9.7 | 0.00 | 0.00 | 0.00 | 35 | 814.6 |
| 20260507051916 | 9 | 343 | 8.0 | 9.7 | 0.00 | 0.00 | 0.00 | 35 | 814.6 |
| 20260507051802 | 9 | 338 | 9.7 | 12.9 | 0.00 | 0.00 | 0.00 | 35 | 814.6 |
| 20260507051651 | 9 | 2 | 8.0 | 11.3 | 0.00 | 0.00 | 0.00 | 36 | 814.6 |
| 20260507051542 | 9 | 349 | 8.0 | 9.7 | 0.00 | 0.00 | 0.00 | 36 | 814.6 |
| 20260507051432 | 9 | 345 | 8.0 | 9.7 | 0.00 | 0.00 | 0.00 | 36 | 814.6 |
| 20260507051322 | 9 | 334 | 9.7 | 9.7 | 0.00 | 0.00 | 0.00 | 36 | 814.6 |
| 20260507051211 | 9 | 335 | 12.9 | 14.5 | 0.00 | 0.00 | 0.00 | 35 | 814.6 |
| 20260507051102 | 9 | 322 | 9.7 | 12.9 | 0.00 | 0.00 | 0.00 | 35 | 814.6 |
| 20260507050842 | 9 | 321 | 12.9 | 14.5 | 0.00 | 0.00 | 0.00 | 35 | 814.6 |
| 20260507050733 | 9 | 312 | 12.9 | 14.5 | 0.00 | 0.00 | 0.00 | 36 | 814.6 |
| 20260507050621 | 9 | 307 | 14.5 | 16.1 | 0.00 | 0.00 | 0.00 | 36 | 814.6 |
| 20260507050512 | 9 | 314 | 14.5 | 16.1 | 0.00 | 0.00 | 0.00 | 37 | 814.6 |
| 20260507050403 | 9 | 313 | 12.9 | 14.5 | 0.00 | 0.00 | 0.00 | 36 | 814.6 |
| 20260507050143 | 9 | 321 | 14.5 | 19.3 | 0.00 | 0.00 | 0.00 | 36 | 814.6 |
| 20260507050033 | 9 | 315 | 16.1 | 20.9 | 0.00 | 0.00 | 0.00 | 36 | 814.6 |
| 20260507045811 | 9 | 319 | 20.9 | 24.1 | 0.00 | 0.00 | 0.00 | 36 | 814.5 |
| 20260507045702 | 9 | 317 | 19.3 | 22.5 | 0.00 | 0.00 | 0.00 | 36 | 814.5 |
| 20260507045551 | 9 | 320 | 17.7 | 22.5 | 0.00 | 0.00 | 0.00 | 36 | 814.5 |
| 20260507045441 | 9 | 318 | 14.5 | 22.5 | 0.00 | 0.00 | 0.00 | 36 | 814.6 |
| 20260507045334 | 9 | 330 | 12.9 | 17.7 | 0.00 | 0.00 | 0.00 | 36 | 814.6 |
| 20260507045223 | 9 | 324 | 16.1 | 19.3 | 0.00 | 0.00 | 0.00 | 36 | 814.5 |
| 20260507045112 | 9 | 327 | 14.5 | 22.5 | 0.00 | 0.00 | 0.00 | 36 | 814.6 |
| 20260507045003 | 9 | 320 | 14.5 | 19.3 | 0.00 | 0.00 | 0.00 | 36 | 814.3 |
| 20260507044744 | 9 | 317 | 16.1 | 17.7 | 0.00 | 0.00 | 0.00 | 36 | 814.6 |
| 20260507044521 | 9 | 322 | 17.7 | 24.1 | 0.00 | 0.00 | 0.00 | 35 | 814.6 |
| 20260507044301 | 9 | 316 | 17.7 | 22.5 | 0.00 | 0.00 | 0.00 | 35 | 814.3 |
| 20260507043932 | 9 | 325 | 12.9 | 19.3 | 0.00 | 0.00 | 0.00 | 35 | 814.5 |
| 20260507043822 | 9 | 324 | 16.1 | 19.3 | 0.00 | 0.00 | 0.00 | 34 | 814.3 |
| 20260507043711 | 9 | 319 | 19.3 | 25.7 | 0.00 | 0.00 | 0.00 | 34 | 814.3 |
| 20260507043603 | 9 | 324 | 17.7 | 22.5 | 0.00 | 0.00 | 0.00 | 34 | 814.3 |
| 20260507043451 | 9 | 325 | 19.3 | 24.1 | 0.00 | 0.00 | 0.00 | 35 | 814.3 |
| 20260507043341 | 9 | 316 | 19.3 | 29.0 | 0.00 | 0.00 | 0.00 | 35 | 814.2 |
| 20260507043231 | 9 | 322 | 17.7 | 24.1 | 0.00 | 0.00 | 0.00 | 35 | 814.3 |
| 20260507043121 | 8 | 329 | 19.3 | 22.5 | 0.00 | 0.00 | 0.00 | 35 | 814.3 |
| 20260507043011 | 8 | 324 | 19.3 | 24.1 | 0.00 | 0.00 | 0.00 | 35 | 814.3 |
| 20260507042901 | 8 | 326 | 16.1 | 24.1 | 0.00 | 0.00 | 0.00 | 36 | 814.3 |
| 20260507042641 | 8 | 318 | 17.7 | 24.1 | 0.00 | 0.00 | 0.00 | 36 | 814.2 |
| 20260507042531 | 8 | 330 | 17.7 | 25.7 | 0.00 | 0.00 | 0.00 | 36 | 814.3 |
| 20260507042421 | 8 | 336 | 12.9 | 19.3 | 0.00 | 0.00 | 0.00 | 36 | 814.3 |
| 20260507042311 | 8 | 330 | 14.5 | 20.9 | 0.00 | 0.00 | 0.00 | 36 | 814.2 |
| 20260507042201 | 8 | 325 | 16.1 | 20.9 | 0.00 | 0.00 | 0.00 | 36 | 814.2 |
| 20260507042051 | 8 | 318 | 17.7 | 24.1 | 0.00 | 0.00 | 0.00 | 36 | 814.2 |
| 20260507041941 | 8 | 325 | 16.1 | 20.9 | 0.00 | 0.00 | 0.00 | 36 | 814.3 |
| 20260507041833 | 8 | 330 | 16.1 | 20.9 | 0.00 | 0.00 | 0.00 | 36 | 814.3 |
| 20260507041721 | 8 | 333 | 16.1 | 20.9 | 0.00 | 0.00 | 0.00 | 36 | 814.3 |
| 20260507041501 | 8 | 342 | 16.1 | 19.3 | 0.00 | 0.00 | 0.00 | 36 | 814.3 |
| 20260507041351 | 8 | 342 | 19.3 | 20.9 | 0.00 | 0.00 | 0.00 | 35 | 814.2 |
| 20260507041241 | 8 | 342 | 17.7 | 22.5 | 0.00 | 0.00 | 0.00 | 35 | 814.2 |
| 20260507041132 | 8 | 349 | 19.3 | 20.9 | 0.00 | 0.00 | 0.00 | 36 | 814.2 |
| 20260507041021 | 8 | 345 | 16.1 | 19.3 | 0.00 | 0.00 | 0.00 | 36 | 814.3 |
| 20260507040912 | 8 | 348 | 17.7 | 20.9 | 0.00 | 0.00 | 0.00 | 37 | 814.2 |
| 20260507040651 | 8 | 356 | 19.3 | 20.9 | 0.00 | 0.00 | 0.00 | 38 | 814.2 |
| 20260507040541 | 8 | 4 | 22.5 | 24.1 | 0.00 | 0.00 | 0.00 | 36 | 814.2 |
| 20260507040321 | 8 | 4 | 22.5 | 25.7 | 0.00 | 0.00 | 0.00 | 37 | 814.2 |
| 20260507035951 | 8 | 6 | 22.5 | 24.1 | 0.00 | 0.00 | 0.00 | 37 | 814.2 |
| 20260507035841 | 8 | 6 | 22.5 | 25.7 | 0.00 | 0.00 | 0.00 | 39 | 814.2 |
| 20260507035731 | 8 | 6 | 24.1 | 27.4 | 0.00 | 0.00 | 0.00 | 38 | 814.2 |
| 20260507035621 | 8 | 8 | 24.1 | 27.4 | 0.00 | 0.00 | 0.00 | 38 | 814.2 |
| 20260507035511 | 8 | 7 | 24.1 | 25.7 | 0.00 | 0.00 | 0.00 | 40 | 814.1 |
| 20260507035251 | 8 | 13 | 25.7 | 29.0 | 0.00 | 0.00 | 0.00 | 43 | 813.9 |
| 20260507035141 | 8 | 14 | 24.1 | 25.7 | 0.00 | 0.00 | 0.00 | 42 | 813.9 |
| 20260507035031 | 8 | 15 | 20.9 | 24.1 | 0.00 | 0.00 | 0.00 | 45 | 814.1 |
| 20260507034921 | 8 | 14 | 24.1 | 29.0 | 0.00 | 0.00 | 0.00 | 39 | 813.9 |
| 20260507034811 | 8 | 14 | 25.7 | 29.0 | 0.00 | 0.00 | 0.00 | 40 | 813.9 |
| 20260507034701 | 8 | 13 | 25.7 | 30.6 | 0.00 | 0.00 | 0.00 | 36 | 813.9 |
| 20260507034441 | 8 | 12 | 27.4 | 30.6 | 0.00 | 0.00 | 0.00 | 35 | 813.8 |
| 20260507034331 | 8 | 15 | 27.4 | 30.6 | 0.00 | 0.00 | 0.00 | 39 | 813.8 |
| 20260507034221 | 8 | 19 | 24.1 | 30.6 | 0.00 | 0.00 | 0.00 | 42 | 813.8 |
| 20260507034001 | 8 | 20 | 22.5 | 29.0 | 0.00 | 0.00 | 0.00 | 43 | 813.8 |
| 20260507033851 | 8 | 14 | 27.4 | 30.6 | 0.00 | 0.00 | 0.00 | 37 | 813.8 |
| 20260507033631 | 8 | 12 | 27.4 | 32.2 | 0.00 | 0.00 | 0.00 | 37 | 813.8 |
| 20260507033411 | 8 | 14 | 27.4 | 32.2 | 0.00 | 0.00 | 0.00 | 37 | 813.8 |
| 20260507033301 | 8 | 14 | 29.0 | 30.6 | 0.00 | 0.00 | 0.00 | 39 | 813.8 |
| 20260507033151 | 8 | 15 | 29.0 | 33.8 | 0.00 | 0.00 | 0.00 | 44 | 813.8 |
| 20260507033041 | 8 | 17 | 27.4 | 32.2 | 0.00 | 0.00 | 0.00 | 44 | 813.8 |
| 20260507032931 | 8 | 16 | 25.7 | 32.2 | 0.00 | 0.00 | 0.00 | 47 | 813.8 |
| 20260507032821 | 8 | 22 | 24.1 | 30.6 | 0.00 | 0.00 | 0.00 | 51 | 813.8 |
| 20260507032711 | 8 | 23 | 24.1 | 30.6 | 0.00 | 0.00 | 0.00 | 52 | 813.8 |
| 20260507032601 | 8 | 19 | 25.7 | 32.2 | 0.00 | 0.00 | 0.00 | 53 | 813.8 |
| 20260507032341 | 8 | 21 | 27.4 | 32.2 | 0.00 | 0.00 | 0.00 | 51 | 813.8 |
| 20260507032231 | 8 | 18 | 25.7 | 32.2 | 0.00 | 0.00 | 0.00 | 50 | 813.8 |
| 20260507032121 | 8 | 18 | 30.6 | 33.8 | 0.00 | 0.00 | 0.00 | 45 | 813.8 |
| 20260507032011 | 8 | 17 | 27.4 | 32.2 | 0.00 | 0.00 | 0.00 | 45 | 813.8 |
| 20260507031901 | 8 | 17 | 29.0 | 33.8 | 0.00 | 0.00 | 0.00 | 45 | 813.8 |
| 20260507031641 | 8 | 13 | 30.6 | 33.8 | 0.00 | 0.00 | 0.00 | 40 | 813.8 |
| 20260507031531 | 8 | 11 | 30.6 | 33.8 | 0.00 | 0.00 | 0.00 | 41 | 813.8 |
| 20260507031421 | 8 | 13 | 30.6 | 33.8 | 0.00 | 0.00 | 0.00 | 42 | 813.8 |
| 20260507031311 | 8 | 11 | 30.6 | 33.8 | 0.00 | 0.00 | 0.00 | 40 | 813.8 |
| 20260507031051 | 8 | 11 | 32.2 | 33.8 | 0.00 | 0.00 | 0.00 | 37 | 813.8 |
| 20260507030941 | 8 | 13 | 30.6 | 33.8 | 0.00 | 0.00 | 0.00 | 37 | 813.8 |
| 20260507030831 | 9 | 9 | 32.2 | 35.4 | 0.00 | 0.00 | 0.00 | 36 | 813.7 |
| 20260507030721 | 9 | 8 | 30.6 | 32.2 | 0.00 | 0.00 | 0.00 | 35 | 813.7 |
| 20260507030611 | 9 | 8 | 29.0 | 32.2 | 0.00 | 0.00 | 0.00 | 33 | 813.8 |
| 20260507030501 | 9 | 8 | 29.0 | 32.2 | 0.00 | 0.00 | 0.00 | 33 | 813.7 |
| 20260507030351 | 8 | 6 | 30.6 | 32.2 | 0.00 | 0.00 | 0.00 | 34 | 813.7 |
| 20260507030241 | 8 | 5 | 27.4 | 30.6 | 0.00 | 0.00 | 0.00 | 36 | 813.8 |
| 20260507030021 | 8 | 2 | 27.4 | 32.2 | 0.00 | 0.00 | 0.00 | 38 | 813.8 |
| 20260507025911 | 8 | 3 | 25.7 | 29.0 | 0.00 | 0.00 | 0.00 | 46 | 813.8 |
| 20260507025801 | 8 | 5 | 24.1 | 29.0 | 0.00 | 0.00 | 0.00 | 47 | 813.8 |
| 20260507025651 | 8 | 12 | 24.1 | 27.4 | 0.00 | 0.00 | 0.00 | 52 | 813.8 |
| 20260507025541 | 8 | 11 | 24.1 | 27.4 | 0.00 | 0.00 | 0.00 | 54 | 813.8 |
| 20260507025431 | 8 | 11 | 25.7 | 29.0 | 0.00 | 0.00 | 0.00 | 47 | 813.7 |
| 20260507025321 | 8 | 11 | 25.7 | 29.0 | 0.00 | 0.00 | 0.00 | 50 | 813.7 |
| 20260507025101 | 8 | 18 | 24.1 | 27.4 | 0.00 | 0.00 | 0.00 | 52 | 813.8 |
| 20260507024951 | 8 | 20 | 19.3 | 24.1 | 0.00 | 0.00 | 0.00 | 55 | 813.8 |
| 20260507024841 | 8 | 19 | 17.7 | 24.1 | 0.00 | 0.00 | 0.00 | 53 | 813.8 |
| 20260507024731 | 8 | 22 | 16.1 | 24.1 | 0.00 | 0.00 | 0.00 | 56 | 813.7 |
| 20260507024621 | 8 | 21 | 14.5 | 22.5 | 0.00 | 0.00 | 0.00 | 59 | 813.7 |
| 20260507024512 | 8 | 30 | 19.3 | 22.5 | 0.00 | 0.00 | 0.00 | 60 | 813.7 |
| 20260507024401 | 8 | 31 | 19.3 | 22.5 | 0.00 | 0.00 | 0.00 | 60 | 813.8 |
| 20260507024251 | 8 | 30 | 19.3 | 22.5 | 0.00 | 0.00 | 0.00 | 59 | 813.8 |
| 20260507024141 | 8 | 31 | 19.3 | 22.5 | 0.00 | 0.00 | 0.00 | 59 | 813.8 |
| 20260507024031 | 8 | 31 | 19.3 | 22.5 | 0.00 | 0.00 | 0.00 | 59 | 813.8 |
| 20260507023921 | 8 | 32 | 20.9 | 22.5 | 0.00 | 0.00 | 0.00 | 60 | 813.7 |
| 20260507023701 | 8 | 34 | 20.9 | 22.5 | 0.00 | 0.00 | 0.00 | 60 | 813.8 |
| 20260507023441 | 8 | 34 | 20.9 | 20.9 | 0.00 | 0.00 | 0.00 | 60 | 813.8 |
| 20260507023331 | 8 | 34 | 19.3 | 20.9 | 0.00 | 0.00 | 0.00 | 61 | 813.8 |
| 20260507023221 | 8 | 33 | 19.3 | 20.9 | 0.00 | 0.00 | 0.00 | 61 | 813.8 |
| 20260507023111 | 8 | 34 | 19.3 | 20.9 | 0.00 | 0.00 | 0.00 | 61 | 813.8 |
| 20260507023001 | 8 | 35 | 19.3 | 19.3 | 0.00 | 0.00 | 0.00 | 61 | 813.8 |
| 20260507022851 | 8 | 34 | 19.3 | 20.9 | 0.00 | 0.00 | 0.00 | 61 | 813.8 |
| 20260507022741 | 8 | 36 | 19.3 | 20.9 | 0.00 | 0.00 | 0.00 | 61 | 813.8 |
| 20260507022631 | 8 | 39 | 19.3 | 19.3 | 0.00 | 0.00 | 0.00 | 61 | 813.8 |
| 20260507022521 | 8 | 38 | 19.3 | 19.3 | 0.00 | 0.00 | 0.00 | 61 | 813.8 |
| 20260507022411 | 8 | 38 | 19.3 | 20.9 | 0.00 | 0.00 | 0.00 | 60 | 813.8 |
| 20260507022301 | 8 | 38 | 19.3 | 20.9 | 0.00 | 0.00 | 0.00 | 60 | 813.8 |
| 20260507022041 | 8 | 38 | 19.3 | 20.9 | 0.00 | 0.00 | 0.00 | 59 | 813.8 |
| 20260507021821 | 9 | 36 | 24.1 | 24.1 | 0.00 | 0.00 | 0.00 | 55 | 813.7 |
| 20260507021711 | 9 | 35 | 24.1 | 24.1 | 0.00 | 0.00 | 0.00 | 55 | 813.7 |
| 20260507021601 | 9 | 35 | 24.1 | 24.1 | 0.00 | 0.00 | 0.00 | 55 | 813.8 |
| 20260507021341 | 9 | 33 | 22.5 | 24.1 | 0.00 | 0.00 | 0.00 | 55 | 813.8 |
| 20260507021121 | 9 | 33 | 22.5 | 24.1 | 0.00 | 0.00 | 0.00 | 55 | 813.8 |
| 20260507021011 | 9 | 33 | 22.5 | 24.1 | 0.00 | 0.00 | 0.00 | 56 | 813.8 |
| 20260507020751 | 9 | 33 | 22.5 | 24.1 | 0.00 | 0.00 | 0.00 | 55 | 813.8 |
| 20260507020641 | 9 | 32 | 22.5 | 24.1 | 0.00 | 0.00 | 0.00 | 55 | 813.8 |
| 20260507020531 | 9 | 33 | 20.9 | 24.1 | 0.00 | 0.00 | 0.00 | 55 | 813.8 |
| 20260507020421 | 9 | 32 | 20.9 | 22.5 | 0.00 | 0.00 | 0.00 | 55 | 813.8 |
| 20260507020311 | 9 | 33 | 20.9 | 22.5 | 0.00 | 0.00 | 0.00 | 55 | 813.8 |
| 20260507020201 | 9 | 32 | 20.9 | 20.9 | 0.00 | 0.00 | 0.00 | 55 | 813.8 |
| 20260507015941 | 9 | 31 | 20.9 | 22.5 | 0.00 | 0.00 | 0.00 | 55 | 813.8 |
| 20260507015721 | 9 | 31 | 19.3 | 22.5 | 0.00 | 0.00 | 0.00 | 55 | 813.8 |
| 20260507015611 | 9 | 31 | 19.3 | 20.9 | 0.00 | 0.00 | 0.00 | 54 | 813.8 |
| 20260507015501 | 9 | 31 | 19.3 | 20.9 | 0.00 | 0.00 | 0.00 | 54 | 813.8 |
| 20260507015351 | 9 | 31 | 19.3 | 20.9 | 0.00 | 0.00 | 0.00 | 54 | 813.8 |
| 20260507015241 | 9 | 30 | 17.7 | 20.9 | 0.00 | 0.00 | 0.00 | 53 | 813.8 |
| 20260507015131 | 9 | 29 | 16.1 | 22.5 | 0.00 | 0.00 | 0.00 | 53 | 813.8 |
| 20260507015021 | 9 | 26 | 14.5 | 22.5 | 0.00 | 0.00 | 0.00 | 53 | 813.8 |
| 20260507014911 | 9 | 27 | 16.1 | 22.5 | 0.00 | 0.00 | 0.00 | 53 | 813.8 |
| 20260507014801 | 9 | 29 | 17.7 | 22.5 | 0.00 | 0.00 | 0.00 | 54 | 813.8 |
| 20260507014651 | 9 | 32 | 19.3 | 20.9 | 0.00 | 0.00 | 0.00 | 53 | 813.8 |
| 20260507014541 | 9 | 32 | 19.3 | 19.3 | 0.00 | 0.00 | 0.00 | 53 | 813.8 |
| 20260507014431 | 9 | 30 | 17.7 | 19.3 | 0.00 | 0.00 | 0.00 | 53 | 813.8 |
| 20260507014321 | 9 | 25 | 14.5 | 20.9 | 0.00 | 0.00 | 0.00 | 53 | 813.8 |
| 20260507014211 | 9 | 23 | 14.5 | 20.9 | 0.00 | 0.00 | 0.00 | 53 | 813.8 |
| 20260507014101 | 9 | 25 | 16.1 | 22.5 | 0.00 | 0.00 | 0.00 | 53 | 813.8 |
| 20260507013951 | 9 | 30 | 19.3 | 20.9 | 0.00 | 0.00 | 0.00 | 53 | 813.8 |
| 20260507013731 | 9 | 32 | 19.3 | 20.9 | 0.00 | 0.00 | 0.00 | 53 | 813.8 |
| 20260507013621 | 9 | 30 | 17.7 | 20.9 | 0.00 | 0.00 | 0.00 | 53 | 813.8 |
| 20260507013511 | 9 | 29 | 16.1 | 20.9 | 0.00 | 0.00 | 0.00 | 52 | 813.8 |
| 20260507013401 | 9 | 29 | 14.5 | 19.3 | 0.00 | 0.00 | 0.00 | 52 | 813.8 |
| 20260507013251 | 9 | 25 | 14.5 | 19.3 | 0.00 | 0.00 | 0.00 | 52 | 813.8 |
| 20260507013031 | 9 | 23 | 14.5 | 19.3 | 0.00 | 0.00 | 0.00 | 52 | 813.8 |
| 20260507012811 | 9 | 23 | 14.5 | 20.9 | 0.00 | 0.00 | 0.00 | 52 | 813.8 |
| 20260507012551 | 9 | 23 | 12.9 | 19.3 | 0.00 | 0.00 | 0.00 | 52 | 813.8 |
| 20260507012441 | 9 | 24 | 12.9 | 19.3 | 0.00 | 0.00 | 0.00 | 52 | 813.8 |
| 20260507012331 | 9 | 24 | 12.9 | 19.3 | 0.00 | 0.00 | 0.00 | 51 | 813.8 |
| 20260507012221 | 9 | 25 | 14.5 | 19.3 | 0.00 | 0.00 | 0.00 | 51 | 813.8 |
| 20260507012111 | 9 | 23 | 14.5 | 19.3 | 0.00 | 0.00 | 0.00 | 51 | 813.8 |
| 20260507012001 | 9 | 21 | 14.5 | 19.3 | 0.00 | 0.00 | 0.00 | 51 | 813.8 |
| 20260507011851 | 9 | 21 | 17.7 | 22.5 | 0.00 | 0.00 | 0.00 | 50 | 813.8 |
| 20260507011741 | 10 | 20 | 17.7 | 20.9 | 0.00 | 0.00 | 0.00 | 50 | 813.8 |
| 20260507011631 | 10 | 20 | 14.5 | 20.9 | 0.00 | 0.00 | 0.00 | 50 | 813.8 |
| 20260507011521 | 10 | 22 | 17.7 | 20.9 | 0.00 | 0.00 | 0.00 | 50 | 813.8 |
| 20260507011301 | 10 | 20 | 17.7 | 20.9 | 0.00 | 0.00 | 0.00 | 50 | 813.8 |
| 20260507011042 | 10 | 18 | 19.3 | 19.3 | 0.00 | 0.00 | 0.00 | 50 | 813.8 |
| 20260507010931 | 10 | 18 | 17.7 | 19.3 | 0.00 | 0.00 | 0.00 | 50 | 813.8 |
| 20260507010821 | 10 | 18 | 19.3 | 19.3 | 0.00 | 0.00 | 0.00 | 50 | 813.8 |
| 20260507010711 | 10 | 17 | 17.7 | 19.3 | 0.00 | 0.00 | 0.00 | 50 | 813.8 |
| 20260507010601 | 10 | 16 | 17.7 | 19.3 | 0.00 | 0.00 | 0.00 | 49 | 813.8 |
| 20260507010451 | 10 | 17 | 17.7 | 19.3 | 0.00 | 0.00 | 0.00 | 49 | 813.8 |
| 20260507010341 | 10 | 17 | 17.7 | 19.3 | 0.00 | 0.00 | 0.00 | 49 | 813.8 |
| 20260507010231 | 10 | 16 | 17.7 | 19.3 | 0.00 | 0.00 | 0.00 | 48 | 813.8 |
| 20260507010011 | 10 | 14 | 16.1 | 17.7 | 0.00 | 0.00 | 0.00 | 48 | 813.8 |
| 20260507005901 | 10 | 14 | 16.1 | 16.1 | 0.00 | 0.00 | 0.00 | 48 | 813.8 |
| 20260507005751 | 10 | 15 | 16.1 | 16.1 | 0.00 | 0.00 | 0.00 | 48 | 813.8 |
| 20260507005641 | 10 | 15 | 16.1 | 17.7 | 0.00 | 0.00 | 0.00 | 49 | 813.8 |
| 20260507005421 | 10 | 13 | 16.1 | 17.7 | 0.00 | 0.00 | 0.00 | 48 | 813.8 |
| 20260507005311 | 10 | 12 | 16.1 | 17.7 | 0.00 | 0.00 | 0.00 | 48 | 813.8 |
| 20260507005201 | 10 | 11 | 16.1 | 17.7 | 0.00 | 0.00 | 0.00 | 48 | 813.8 |
| 20260507005051 | 10 | 11 | 14.5 | 16.1 | 0.00 | 0.00 | 0.00 | 48 | 813.8 |
| 20260507004941 | 10 | 11 | 14.5 | 14.5 | 0.00 | 0.00 | 0.00 | 47 | 813.8 |
| 20260507004831 | 10 | 11 | 14.5 | 14.5 | 0.00 | 0.00 | 0.00 | 47 | 813.8 |
| 20260507004721 | 10 | 11 | 14.5 | 14.5 | 0.00 | 0.00 | 0.00 | 47 | 813.8 |
| 20260507004611 | 10 | 11 | 14.5 | 14.5 | 0.00 | 0.00 | 0.00 | 47 | 813.8 |
| 20260507004501 | 10 | 8 | 14.5 | 16.1 | 0.00 | 0.00 | 0.00 | 48 | 813.8 |
| 20260507004351 | 10 | 11 | 14.5 | 14.5 | 0.00 | 0.00 | 0.00 | 48 | 813.8 |
| 20260507004241 | 10 | 12 | 12.9 | 14.5 | 0.00 | 0.00 | 0.00 | 48 | 813.8 |
| 20260507003911 | 10 | 12 | 11.3 | 12.9 | 0.00 | 0.00 | 0.00 | 49 | 813.8 |
| 20260507003801 | 10 | 12 | 11.3 | 11.3 | 0.00 | 0.00 | 0.00 | 49 | 813.8 |
| 20260507003651 | 10 | 11 | 9.7 | 11.3 | 0.00 | 0.00 | 0.00 | 49 | 813.8 |
| 20260507003541 | 10 | 11 | 9.7 | 9.7 | 0.00 | 0.00 | 0.00 | 49 | 813.8 |
| 20260507003211 | 10 | 10 | 9.7 | 9.7 | 0.00 | 0.00 | 0.00 | 49 | 813.8 |
| 20260507003101 | 10 | 10 | 9.7 | 9.7 | 0.00 | 0.00 | 0.00 | 49 | 813.8 |
| 20260507002951 | 10 | 6 | 9.7 | 9.7 | 0.00 | 0.00 | 0.00 | 48 | 813.8 |
| 20260507002840 | 9 | 3 | 9.7 | 9.7 | 0.00 | 0.00 | 0.00 | 48 | 813.8 |
| 20260507002731 | 9 | 2 | 9.7 | 9.7 | 0.00 | 0.00 | 0.00 | 50 | 813.8 |
| 20260507002621 | 9 | 2 | 9.7 | 9.7 | 0.00 | 0.00 | 0.00 | 50 | 813.8 |
| 20260507002511 | 9 | 3 | 9.7 | 9.7 | 0.00 | 0.00 | 0.00 | 49 | 813.8 |
| 20260507002401 | 9 | 0 | 8.0 | 9.7 | 0.00 | 0.00 | 0.00 | 48 | 813.8 |
| 20260507002251 | 9 | 0 | 8.0 | 9.7 | 0.00 | 0.00 | 0.00 | 50 | 813.8 |
| 20260507002141 | 9 | 354 | 8.0 | 8.0 | 0.00 | 0.00 | 0.00 | 48 | 813.8 |
| 20260507002031 | 9 | 354 | 8.0 | 9.7 | 0.00 | 0.00 | 0.00 | 48 | 813.8 |
| 20260507001921 | 9 | 354 | 8.0 | 9.7 | 0.00 | 0.00 | 0.00 | 47 | 813.8 |
| 20260507001701 | 9 | 338 | 6.4 | 8.0 | 0.00 | 0.00 | 0.00 | 47 | 813.8 |
| 20260507001441 | 9 | 322 | 4.8 | 6.4 | 0.00 | 0.00 | 0.00 | 48 | 813.8 |
| 20260507001331 | 8 | 313 | 4.8 | 6.4 | 0.00 | 0.00 | 0.00 | 49 | 813.8 |
| 20260507001221 | 8 | 312 | 6.4 | 6.4 | 0.00 | 0.00 | 0.00 | 49 | 813.8 |
| 20260507001111 | 8 | 312 | 4.8 | 6.4 | 0.00 | 0.00 | 0.00 | 50 | 813.8 |
| 20260507001000 | 8 | 309 | 4.8 | 4.8 | 0.00 | 0.00 | 0.00 | 50 | 813.8 |
| 20260507000741 | 8 | 301 | 3.2 | 3.2 | 0.00 | 0.00 | 0.00 | 52 | 813.8 |
| 20260507000520 | 8 | 297 | 3.2 | 3.2 | 0.00 | 0.00 | 0.00 | 56 | 813.8 |
| 20260507000412 | 8 | 294 | 4.8 | 4.8 | 0.00 | 0.00 | 0.00 | 56 | 813.8 |
| 20260507000301 | 8 | 289 | 6.4 | 6.4 | 0.00 | 0.00 | 0.00 | 56 | 813.8 |
| 20260507000151 | 8 | 283 | 6.4 | 8.0 | 0.00 | 0.00 | 0.00 | 56 | 813.8 |
| 20260507000041 | 8 | 283 | 6.4 | 6.4 | 0.00 | 0.00 | 0.00 | 57 | 813.8 |
| 20260506235821 | 8 | 276 | 6.4 | 8.0 | 0.00 | 0.00 | 0.00 | 57 | 813.8 |
| 20260506235710 | 8 | 287 | 6.4 | 9.7 | 0.00 | 0.00 | 0.00 | 57 | 813.8 |
| 20260506235602 | 8 | 280 | 8.0 | 9.7 | 0.00 | 0.00 | 0.00 | 56 | 813.8 |
| 20260506235451 | 8 | 280 | 8.0 | 9.7 | 0.00 | 0.00 | 0.00 | 56 | 813.8 |
| 20260506235340 | 8 | 278 | 8.0 | 9.7 | 0.00 | 0.00 | 0.00 | 55 | 813.8 |
| 20260506235231 | 8 | 284 | 6.4 | 9.7 | 0.00 | 0.00 | 0.00 | 54 | 813.8 |
| 20260506235121 | 8 | 292 | 6.4 | 8.0 | 0.00 | 0.00 | 0.00 | 54 | 813.8 |
| 20260506235011 | 8 | 287 | 8.0 | 9.7 | 0.00 | 0.00 | 0.00 | 52 | 813.8 |
| 20260506234901 | 8 | 302 | 8.0 | 9.7 | 0.00 | 0.00 | 0.00 | 52 | 813.8 |
| 20260506234750 | 8 | 300 | 8.0 | 9.7 | 0.00 | 0.00 | 0.00 | 51 | 813.8 |
| 20260506234420 | 8 | 278 | 6.4 | 6.4 | 0.00 | 0.00 | 0.00 | 49 | 813.8 |
| 20260506234310 | 8 | 284 | 6.4 | 8.0 | 0.00 | 0.00 | 0.00 | 49 | 813.8 |
| 20260506234201 | 8 | 291 | 6.4 | 8.0 | 0.00 | 0.00 | 0.00 | 50 | 813.8 |
| 20260506234051 | 8 | 292 | 4.8 | 6.4 | 0.00 | 0.00 | 0.00 | 51 | 813.8 |
| 20260506233721 | 8 | 273 | 6.4 | 6.4 | 0.00 | 0.00 | 0.00 | 51 | 813.9 |
| 20260506233611 | 8 | 269 | 6.4 | 9.7 | 0.00 | 0.00 | 0.00 | 52 | 813.9 |
| 20260506233500 | 8 | 269 | 4.8 | 6.4 | 0.00 | 0.00 | 0.00 | 52 | 813.9 |
| 20260506233350 | 8 | 261 | 4.8 | 4.8 | 0.00 | 0.00 | 0.00 | 51 | 813.9 |
| 20260506233240 | 8 | 258 | 3.2 | 4.8 | 0.00 | 0.00 | 0.00 | 51 | 813.9 |
| 20260506233131 | 8 | 263 | 4.8 | 6.4 | 0.00 | 0.00 | 0.00 | 51 | 814.1 |
| 20260506233021 | 8 | 264 | 6.4 | 8.0 | 0.00 | 0.00 | 0.00 | 50 | 813.9 |
| 20260506232910 | 8 | 264 | 4.8 | 6.4 | 0.00 | 0.00 | 0.00 | 50 | 813.9 |
| 20260506232800 | 8 | 306 | 6.4 | 8.0 | 0.00 | 0.00 | 0.00 | 48 | 813.9 |
| 20260506232651 | 9 | 271 | 4.8 | 8.0 | 0.00 | 0.00 | 0.00 | 50 | 814.1 |
| 20260506232540 | 9 | 259 | 4.8 | 6.4 | 0.00 | 0.00 | 0.00 | 49 | 813.9 |
| 20260506232430 | 9 | 255 | 4.8 | 6.4 | 0.00 | 0.00 | 0.00 | 49 | 813.9 |
| 20260506232320 | 9 | 260 | 4.8 | 8.0 | 0.00 | 0.00 | 0.00 | 48 | 814.1 |
| 20260506232211 | 8 | 270 | 8.0 | 8.0 | 0.00 | 0.00 | 0.00 | 48 | 813.9 |
| 20260506232100 | 8 | 267 | 9.7 | 11.3 | 0.00 | 0.00 | 0.00 | 47 | 814.1 |
| 20260506231951 | 8 | 263 | 9.7 | 11.3 | 0.00 | 0.00 | 0.00 | 46 | 813.9 |
| 20260506231841 | 8 | 265 | 8.0 | 9.7 | 0.00 | 0.00 | 0.00 | 48 | 813.9 |
| 20260506231620 | 8 | 270 | 8.0 | 11.3 | 0.00 | 0.00 | 0.00 | 48 | 813.9 |
| 20260506231510 | 8 | 265 | 9.7 | 11.3 | 0.00 | 0.00 | 0.00 | 49 | 813.9 |
| 20260506231401 | 8 | 266 | 9.7 | 11.3 | 0.00 | 0.00 | 0.00 | 50 | 813.9 |
| 20260506231250 | 8 | 263 | 9.7 | 11.3 | 0.00 | 0.00 | 0.00 | 50 | 813.9 |
| 20260506231140 | 8 | 254 | 9.7 | 11.3 | 0.00 | 0.00 | 0.00 | 48 | 813.9 |
| 20260506231030 | 8 | 253 | 6.4 | 9.7 | 0.00 | 0.00 | 0.00 | 54 | 813.9 |
| 20260506230920 | 8 | 259 | 6.4 | 8.0 | 0.00 | 0.00 | 0.00 | 54 | 813.9 |
| 20260506230811 | 8 | 264 | 4.8 | 6.4 | 0.00 | 0.00 | 0.00 | 54 | 813.9 |
| 20260506230701 | 8 | 258 | 6.4 | 8.0 | 0.00 | 0.00 | 0.00 | 53 | 813.9 |
| 20260506230551 | 8 | 239 | 6.4 | 6.4 | 0.00 | 0.00 | 0.00 | 51 | 813.9 |
| 20260506230441 | 8 | 233 | 6.4 | 8.0 | 0.00 | 0.00 | 0.00 | 52 | 813.9 |
| 20260506230221 | 8 | 221 | 4.8 | 6.4 | 0.00 | 0.00 | 0.00 | 54 | 813.9 |
| 20260506225850 | 8 | 243 | 6.4 | 6.4 | 0.00 | 0.00 | 0.00 | 55 | 814.1 |
| 20260506225740 | 8 | 240 | 6.4 | 8.0 | 0.00 | 0.00 | 0.00 | 55 | 813.9 |
| 20260506225411 | 8 | 217 | 4.8 | 6.4 | 0.00 | 0.00 | 0.00 | 53 | 814.1 |
| 20260506225300 | 8 | 236 | 8.0 | 9.7 | 0.00 | 0.00 | 0.00 | 53 | 814.1 |
| 20260506225151 | 8 | 237 | 8.0 | 9.7 | 0.00 | 0.00 | 0.00 | 54 | 814.1 |
| 20260506224931 | 8 | 256 | 8.0 | 9.7 | 0.00 | 0.00 | 0.00 | 56 | 813.9 |
| 20260506224820 | 8 | 244 | 8.0 | 9.7 | 0.00 | 0.00 | 0.00 | 55 | 813.9 |
| 20260506224710 | 8 | 238 | 8.0 | 9.7 | 0.00 | 0.00 | 0.00 | 55 | 814.1 |
| 20260506224601 | 8 | 235 | 8.0 | 9.7 | 0.00 | 0.00 | 0.00 | 54 | 813.9 |
| 20260506224451 | 8 | 253 | 9.7 | 11.3 | 0.00 | 0.00 | 0.00 | 56 | 813.9 |
| 20260506224341 | 8 | 246 | 8.0 | 9.7 | 0.00 | 0.00 | 0.00 | 57 | 813.9 |
| 20260506224230 | 8 | 251 | 8.0 | 9.7 | 0.00 | 0.00 | 0.00 | 57 | 813.9 |
| 20260506224120 | 8 | 256 | 11.3 | 14.5 | 0.00 | 0.00 | 0.00 | 56 | 813.9 |
| 20260506224010 | 8 | 262 | 9.7 | 14.5 | 0.00 | 0.00 | 0.00 | 56 | 813.9 |
| 20260506223900 | 8 | 251 | 6.4 | 14.5 | 0.00 | 0.00 | 0.00 | 57 | 813.9 |
| 20260506223750 | 8 | 236 | 6.4 | 9.7 | 0.00 | 0.00 | 0.00 | 56 | 813.9 |
| 20260506223640 | 8 | 252 | 9.7 | 11.3 | 0.00 | 0.00 | 0.00 | 55 | 813.9 |
| 20260506223530 | 8 | 247 | 9.7 | 12.9 | 0.00 | 0.00 | 0.00 | 59 | 813.9 |
| 20260506223310 | 8 | 224 | 8.0 | 9.7 | 0.00 | 0.00 | 0.00 | 63 | 813.9 |
| 20260506223200 | 8 | 247 | 9.7 | 11.3 | 0.00 | 0.00 | 0.00 | 62 | 813.9 |
| 20260506223050 | 7 | 259 | 11.3 | 14.5 | 0.00 | 0.00 | 0.00 | 63 | 813.9 |
| 20260506222940 | 7 | 258 | 12.9 | 16.1 | 0.00 | 0.00 | 0.00 | 65 | 813.9 |
| 20260506222830 | 8 | 222 | 6.4 | 9.7 | 0.00 | 0.00 | 0.00 | 69 | 814.2 |
| 20260506222720 | 8 | 281 | 1.6 | 6.4 | 0.00 | 0.00 | 0.00 | 68 | 814.2 |
| 20260506222610 | 8 | 202 | 3.2 | 6.4 | 0.00 | 0.00 | 0.00 | 67 | 814.1 |
| 20260506222500 | 7 | 254 | 9.7 | 14.5 | 0.00 | 0.00 | 0.00 | 64 | 814.2 |
| 20260506222350 | 7 | 256 | 12.9 | 16.1 | 0.00 | 0.00 | 0.00 | 65 | 814.1 |
| 20260506222240 | 7 | 245 | 11.3 | 14.5 | 0.00 | 0.00 | 0.00 | 66 | 814.1 |
| 20260506222131 | 7 | 246 | 11.3 | 16.1 | 0.00 | 0.00 | 0.00 | 72 | 814.1 |
| 20260506222020 | 7 | 241 | 4.8 | 9.7 | 0.00 | 0.00 | 0.00 | 72 | 814.1 |
| 20260506221910 | 7 | 243 | 6.4 | 9.7 | 0.00 | 0.00 | 0.00 | 70 | 814.1 |
| 20260506221800 | 7 | 244 | 6.4 | 9.7 | 0.00 | 0.00 | 0.00 | 73 | 814.2 |
| 20260506221650 | 7 | 225 | 6.4 | 9.7 | 0.00 | 0.00 | 0.00 | 72 | 814.2 |
| 20260506221320 | 7 | 256 | 11.3 | 14.5 | 0.00 | 0.00 | 0.00 | 70 | 813.9 |
| 20260506221210 | 7 | 247 | 12.9 | 17.7 | 0.00 | 0.00 | 0.00 | 72 | 814.1 |
| 20260506220840 | 7 | 232 | 6.4 | 16.1 | 0.00 | 0.00 | 0.00 | 80 | 814.2 |
| 20260506220730 | 7 | 219 | 4.8 | 12.9 | 0.00 | 0.00 | 0.00 | 79 | 814.1 |
| 20260506220400 | 6 | 251 | 12.9 | 22.5 | 0.00 | 0.00 | 0.00 | 81 | 814.1 |
| 20260506220250 | 7 | 250 | 6.4 | 12.9 | 0.00 | 0.00 | 0.00 | 81 | 813.9 |
| 20260506220140 | 7 | 252 | 14.5 | 22.5 | 0.00 | 0.00 | 0.00 | 81 | 813.9 |
| 20260506220030 | 6 | 245 | 16.1 | 22.5 | 0.00 | 0.00 | 0.00 | 82 | 814.1 |
| 20260506215920 | 6 | 247 | 19.3 | 25.7 | 0.00 | 0.00 | 0.00 | 83 | 814.1 |
| 20260506215810 | 6 | 247 | 16.1 | 22.5 | 0.00 | 0.00 | 0.00 | 83 | 814.1 |
| 20260506215700 | 6 | 243 | 11.3 | 17.7 | 0.00 | 0.00 | 0.00 | 83 | 814.1 |
| 20260506215440 | 6 | 247 | 19.3 | 25.7 | 0.00 | 0.00 | 0.00 | 84 | 813.9 |
| 20260506215330 | 6 | 245 | 19.3 | 27.4 | 0.00 | 0.00 | 0.00 | 85 | 814.1 |
| 20260506215110 | 6 | 230 | 14.5 | 16.1 | 0.00 | 0.00 | 0.00 | 84 | 813.9 |
| 20260506215000 | 6 | 242 | 14.5 | 19.3 | 0.00 | 0.00 | 0.00 | 84 | 814.1 |
| 20260506214850 | 6 | 238 | 12.9 | 17.7 | 0.00 | 0.00 | 0.00 | 83 | 814.1 |
| 20260506214740 | 6 | 247 | 12.9 | 19.3 | 0.00 | 0.00 | 0.00 | 84 | 814.1 |
| 20260506214630 | 6 | 239 | 16.1 | 20.9 | 0.00 | 0.00 | 0.00 | 84 | 813.9 |
| 20260506214520 | 6 | 242 | 19.3 | 22.5 | 0.00 | 0.00 | 0.00 | 84 | 813.9 |
| 20260506214150 | 6 | 243 | 16.1 | 19.3 | 0.00 | 0.00 | 0.00 | 85 | 814.1 |
| 20260506214040 | 6 | 243 | 12.9 | 16.1 | 0.00 | 0.00 | 0.00 | 85 | 814.1 |
| 20260506213930 | 6 | 242 | 14.5 | 19.3 | 0.00 | 0.00 | 0.00 | 84 | 813.9 |
| 20260506213820 | 6 | 234 | 12.9 | 16.1 | 0.00 | 0.00 | 0.00 | 85 | 814.1 |
| 20260506213710 | 6 | 239 | 16.1 | 19.3 | 0.00 | 0.00 | 0.00 | 85 | 813.9 |
| 20260506213600 | 6 | 243 | 19.3 | 20.9 | 0.00 | 0.00 | 0.00 | 85 | 813.9 |
| 20260506213450 | 6 | 246 | 19.3 | 22.5 | 0.00 | 0.00 | 0.00 | 86 | 813.9 |
| 20260506213340 | 6 | 245 | 19.3 | 20.9 | 0.00 | 0.00 | 0.00 | 86 | 813.9 |
| 20260506213230 | 6 | 242 | 17.7 | 20.9 | 0.00 | 0.00 | 0.00 | 86 | 813.9 |
| 20260506213120 | 6 | 244 | 17.7 | 22.5 | 0.00 | 0.00 | 0.00 | 86 | 814.1 |
| 20260506213010 | 6 | 240 | 16.1 | 19.3 | 0.00 | 0.00 | 0.00 | 86 | 813.9 |
| 20260506212900 | 6 | 248 | 17.7 | 22.5 | 0.00 | 0.00 | 0.00 | 86 | 813.9 |
| 20260506212750 | 6 | 246 | 20.9 | 25.7 | 0.00 | 0.00 | 0.00 | 86 | 813.9 |
| 20260506212640 | 6 | 246 | 19.3 | 27.4 | 0.00 | 0.00 | 0.00 | 86 | 813.8 |
| 20260506212200 | 6 | 242 | 19.3 | 22.5 | 0.00 | 0.00 | 0.00 | 88 | 813.9 |
| 20260506212050 | 6 | 242 | 17.7 | 24.1 | 0.00 | 0.00 | 0.00 | 88 | 813.9 |
| 20260506211940 | 6 | 248 | 14.5 | 17.7 | 0.00 | 0.00 | 0.00 | 88 | 813.9 |
| 20260506211830 | 6 | 243 | 14.5 | 17.7 | 0.00 | 0.00 | 0.00 | 89 | 813.9 |
| 20260506211720 | 6 | 242 | 12.9 | 16.1 | 0.00 | 0.00 | 0.00 | 89 | 814.1 |
| 20260506211610 | 6 | 248 | 16.1 | 20.9 | 0.00 | 0.00 | 0.00 | 88 | 814.1 |
| 20260506211500 | 6 | 239 | 12.9 | 16.1 | 0.00 | 0.00 | 0.00 | 88 | 813.9 |
| 20260506211350 | 6 | 244 | 12.9 | 19.3 | 0.00 | 0.00 | 0.00 | 88 | 814.1 |
| 20260506211240 | 6 | 247 | 14.5 | 19.3 | 0.00 | 0.00 | 0.00 | 88 | 814.1 |
| 20260506211020 | 6 | 246 | 12.9 | 17.7 | 0.00 | 0.00 | 0.00 | 88 | 813.9 |
| 20260506210910 | 6 | 248 | 16.1 | 19.3 | 0.00 | 0.00 | 0.00 | 88 | 814.1 |
| 20260506210800 | 6 | 249 | 17.7 | 22.5 | 0.00 | 0.00 | 0.00 | 89 | 813.9 |
| 20260506210650 | 6 | 247 | 12.9 | 19.3 | 0.00 | 0.00 | 0.00 | 89 | 814.1 |
| 20260506210540 | 6 | 243 | 12.9 | 16.1 | 0.00 | 0.00 | 0.00 | 89 | 814.1 |
| 20260506210430 | 6 | 252 | 16.1 | 20.9 | 0.00 | 0.00 | 0.00 | 89 | 814.1 |
| 20260506210320 | 6 | 232 | 16.1 | 19.3 | 0.00 | 0.00 | 0.00 | 89 | 814.1 |
| 20260506210100 | 6 | 251 | 16.1 | 20.9 | 0.00 | 0.00 | 0.00 | 89 | 814.2 |
| 20260506205950 | 6 | 231 | 12.9 | 19.3 | 0.00 | 0.00 | 0.00 | 89 | 813.9 |
| 20260506205840 | 6 | 222 | 14.5 | 19.3 | 0.00 | 0.00 | 0.00 | 89 | 814.2 |
| 20260506205730 | 6 | 237 | 16.1 | 19.3 | 0.00 | 0.00 | 0.00 | 89 | 813.9 |
| 20260506205620 | 6 | 247 | 17.7 | 22.5 | 0.00 | 0.00 | 0.00 | 90 | 813.9 |
| 20260506205510 | 6 | 249 | 16.1 | 22.5 | 0.00 | 0.00 | 0.00 | 89 | 813.9 |
| 20260506205400 | 6 | 246 | 16.1 | 20.9 | 0.00 | 0.00 | 0.00 | 89 | 813.9 |
| 20260506205250 | 6 | 236 | 12.9 | 17.7 | 0.00 | 0.00 | 0.00 | 89 | 814.1 |
| 20260506205140 | 6 | 235 | 17.7 | 22.5 | 0.00 | 0.00 | 0.00 | 89 | 814.1 |
| 20260506205030 | 6 | 230 | 14.5 | 20.9 | 0.00 | 0.00 | 0.00 | 88 | 813.9 |
| 20260506204920 | 6 | 241 | 14.5 | 19.3 | 0.00 | 0.00 | 0.00 | 88 | 813.9 |
| 20260506204810 | 6 | 249 | 17.7 | 20.9 | 0.00 | 0.00 | 0.00 | 89 | 814.1 |
| 20260506204700 | 6 | 248 | 16.1 | 20.9 | 0.00 | 0.00 | 0.00 | 89 | 814.1 |
| 20260506204550 | 6 | 246 | 16.1 | 20.9 | 0.00 | 0.00 | 0.00 | 90 | 813.9 |
| 20260506204440 | 6 | 247 | 16.1 | 20.9 | 0.00 | 0.00 | 0.00 | 90 | 814.1 |
| 20260506204330 | 6 | 245 | 14.5 | 20.9 | 0.00 | 0.00 | 0.00 | 90 | 813.9 |
| 20260506204110 | 6 | 237 | 14.5 | 19.3 | 0.00 | 0.00 | 0.00 | 90 | 813.9 |
| 20260506204000 | 6 | 245 | 17.7 | 22.5 | 0.00 | 0.00 | 0.00 | 91 | 814.1 |
| 20260506203740 | 6 | 251 | 16.1 | 20.9 | 0.00 | 0.00 | 0.00 | 91 | 813.9 |
| 20260506203630 | 6 | 239 | 14.5 | 20.9 | 0.00 | 0.00 | 0.00 | 91 | 814.1 |
| 20260506203520 | 6 | 251 | 16.1 | 19.3 | 0.00 | 0.00 | 0.00 | 91 | 814.1 |
| 20260506203410 | 6 | 244 | 14.5 | 19.3 | 0.00 | 0.00 | 0.00 | 91 | 813.9 |
| 20260506203300 | 6 | 243 | 14.5 | 22.5 | 0.00 | 0.00 | 0.00 | 91 | 813.9 |
| 20260506203150 | 6 | 245 | 14.5 | 19.3 | 0.00 | 0.00 | 0.00 | 91 | 813.9 |
| 20260506203040 | 6 | 250 | 16.1 | 20.9 | 0.00 | 0.00 | 0.00 | 91 | 813.9 |
| 20260506202930 | 6 | 251 | 14.5 | 20.9 | 0.00 | 0.00 | 0.00 | 91 | 814.1 |
| 20260506202820 | 6 | 240 | 14.5 | 19.3 | 0.00 | 0.00 | 0.00 | 91 | 813.9 |
| 20260506202710 | 6 | 237 | 14.5 | 17.7 | 0.00 | 0.00 | 0.00 | 91 | 813.9 |
| 20260506202600 | 6 | 242 | 12.9 | 17.7 | 0.00 | 0.00 | 0.00 | 90 | 814.2 |
| 20260506202340 | 6 | 239 | 16.1 | 19.3 | 0.00 | 0.00 | 0.00 | 90 | 814.1 |
| 20260506202230 | 6 | 238 | 16.1 | 22.5 | 0.00 | 0.00 | 0.00 | 89 | 813.9 |
| 20260506202120 | 6 | 246 | 16.1 | 20.9 | 0.00 | 0.00 | 0.00 | 89 | 814.1 |
| 20260506201900 | 6 | 237 | 17.7 | 24.1 | 0.00 | 0.00 | 0.00 | 89 | 814.1 |
| 20260506201750 | 6 | 246 | 20.9 | 27.4 | 0.00 | 0.00 | 0.00 | 90 | 813.9 |
| 20260506201640 | 6 | 238 | 17.7 | 22.5 | 0.00 | 0.00 | 0.00 | 90 | 813.9 |
| 20260506201530 | 6 | 245 | 16.1 | 20.9 | 0.00 | 0.00 | 0.00 | 90 | 813.9 |
| 20260506201420 | 6 | 240 | 14.5 | 19.3 | 0.00 | 0.00 | 0.00 | 90 | 814.1 |
| 20260506201310 | 6 | 242 | 17.7 | 27.4 | 0.00 | 0.00 | 0.00 | 91 | 813.9 |
| 20260506201050 | 6 | 253 | 16.1 | 24.1 | 0.00 | 0.00 | 0.00 | 91 | 813.9 |
| 20260506200940 | 6 | 242 | 16.1 | 20.9 | 0.00 | 0.00 | 0.00 | 91 | 814.1 |
| 20260506200829 | 6 | 247 | 19.3 | 24.1 | 0.00 | 0.00 | 0.00 | 91 | 814.1 |
| 20260506200720 | 6 | 250 | 16.1 | 22.5 | 0.00 | 0.00 | 0.00 | 91 | 814.1 |
| 20260506200609 | 6 | 247 | 17.7 | 24.1 | 0.00 | 0.00 | 0.00 | 92 | 813.9 |
| 20260506200459 | 6 | 250 | 19.3 | 25.7 | 0.00 | 0.00 | 0.00 | 91 | 813.9 |
| 20260506200350 | 6 | 243 | 16.1 | 20.9 | 0.00 | 0.00 | 0.00 | 92 | 813.9 |
| 20260506200240 | 6 | 246 | 17.7 | 24.1 | 0.00 | 0.00 | 0.00 | 92 | 814.1 |
| 20260506200020 | 6 | 244 | 16.1 | 22.5 | 0.00 | 0.00 | 0.00 | 92 | 814.2 |
| 20260506195909 | 6 | 245 | 17.7 | 20.9 | 0.00 | 0.00 | 0.00 | 91 | 814.2 |
| 20260506195800 | 6 | 243 | 16.1 | 22.5 | 0.00 | 0.00 | 0.00 | 91 | 814.1 |
| 20260506195650 | 6 | 240 | 16.1 | 22.5 | 0.00 | 0.00 | 0.00 | 91 | 814.1 |
| 20260506195540 | 6 | 240 | 16.1 | 24.1 | 0.00 | 0.00 | 0.00 | 91 | 814.2 |
| 20260506195429 | 6 | 242 | 17.7 | 24.1 | 0.00 | 0.00 | 0.00 | 90 | 814.1 |
| 20260506195319 | 6 | 246 | 17.7 | 25.7 | 0.00 | 0.00 | 0.00 | 90 | 814.1 |
| 20260506195059 | 6 | 248 | 20.9 | 25.7 | 0.00 | 0.00 | 0.00 | 90 | 813.9 |
| 20260506194950 | 6 | 249 | 20.9 | 27.4 | 0.00 | 0.00 | 0.00 | 91 | 813.9 |
| 20260506194840 | 6 | 249 | 22.5 | 27.4 | 0.00 | 0.00 | 0.00 | 91 | 813.9 |
| 20260506194729 | 6 | 248 | 20.9 | 25.7 | 0.00 | 0.00 | 0.00 | 92 | 814.1 |
| 20260506194619 | 6 | 248 | 22.5 | 29.0 | 0.00 | 0.00 | 0.00 | 91 | 813.9 |
| 20260506194510 | 6 | 245 | 19.3 | 25.7 | 0.00 | 0.00 | 0.00 | 91 | 813.9 |
| 20260506194400 | 6 | 248 | 19.3 | 27.4 | 0.00 | 0.00 | 0.00 | 90 | 814.1 |
| 20260506194249 | 6 | 249 | 20.9 | 27.4 | 0.00 | 0.00 | 0.00 | 90 | 813.8 |
| 20260506194139 | 6 | 249 | 20.9 | 27.4 | 0.00 | 0.00 | 0.00 | 91 | 813.9 |
| 20260506194029 | 6 | 248 | 19.3 | 29.0 | 0.00 | 0.00 | 0.00 | 90 | 813.9 |
| 20260506193920 | 6 | 245 | 19.3 | 27.4 | 0.00 | 0.00 | 0.00 | 91 | 813.9 |
| 20260506193810 | 6 | 239 | 20.9 | 29.0 | 0.00 | 0.00 | 0.00 | 90 | 813.9 |
| 20260506193659 | 6 | 246 | 20.9 | 30.6 | 0.00 | 0.00 | 0.00 | 91 | 813.9 |
| 20260506193549 | 6 | 246 | 20.9 | 29.0 | 0.00 | 0.00 | 0.00 | 91 | 813.9 |
| 20260506193329 | 6 | 240 | 19.3 | 24.1 | 0.00 | 0.00 | 0.00 | 91 | 813.9 |
| 20260506193219 | 6 | 241 | 19.3 | 25.7 | 0.00 | 0.00 | 0.00 | 92 | 814.1 |
| 20260506193109 | 6 | 244 | 20.9 | 29.0 | 0.00 | 0.00 | 0.00 | 91 | 813.9 |
| 20260506192959 | 6 | 236 | 17.7 | 22.5 | 0.00 | 0.00 | 0.00 | 90 | 813.9 |
| 20260506192850 | 6 | 234 | 19.3 | 25.7 | 0.00 | 0.00 | 0.00 | 90 | 813.9 |
| 20260506192739 | 6 | 229 | 19.3 | 25.7 | 0.00 | 0.00 | 0.00 | 90 | 813.9 |
| 20260506192629 | 6 | 236 | 20.9 | 27.4 | 0.00 | 0.00 | 0.00 | 91 | 814.1 |
| 20260506192519 | 6 | 244 | 22.5 | 30.6 | 0.00 | 0.00 | 0.00 | 91 | 813.9 |
| 20260506192409 | 6 | 241 | 19.3 | 24.1 | 0.00 | 0.00 | 0.00 | 91 | 814.1 |
| 20260506192259 | 6 | 236 | 19.3 | 25.7 | 0.00 | 0.00 | 0.00 | 91 | 814.1 |
| 20260506192149 | 6 | 238 | 19.3 | 25.7 | 0.00 | 0.00 | 0.00 | 91 | 814.1 |
| 20260506192040 | 6 | 244 | 20.9 | 30.6 | 0.00 | 0.00 | 0.00 | 92 | 813.9 |
| 20260506191929 | 6 | 241 | 22.5 | 30.6 | 0.00 | 0.00 | 0.00 | 92 | 813.9 |
| 20260506191819 | 6 | 243 | 19.3 | 27.4 | 0.00 | 0.00 | 0.00 | 92 | 813.9 |
| 20260506191709 | 6 | 241 | 19.3 | 29.0 | 0.00 | 0.00 | 0.00 | 92 | 813.9 |
| 20260506191559 | 6 | 243 | 20.9 | 27.4 | 0.00 | 0.00 | 0.00 | 92 | 813.9 |
| 20260506191340 | 6 | 239 | 19.3 | 25.7 | 0.00 | 0.00 | 0.00 | 92 | 814.1 |
| 20260506191229 | 6 | 240 | 20.9 | 27.4 | 0.00 | 0.00 | 0.00 | 92 | 813.9 |
| 20260506191119 | 6 | 241 | 19.3 | 24.1 | 0.00 | 0.00 | 0.00 | 92 | 813.9 |
| 20260506191009 | 6 | 239 | 19.3 | 25.7 | 0.00 | 0.00 | 0.00 | 93 | 813.9 |
| 20260506190859 | 6 | 244 | 19.3 | 27.4 | 0.00 | 0.00 | 0.00 | 93 | 813.9 |
| 20260506190749 | 6 | 241 | 19.3 | 24.1 | 0.00 | 0.00 | 0.00 | 94 | 813.9 |
| 20260506190639 | 6 | 244 | 22.5 | 30.6 | 0.00 | 0.00 | 0.00 | 95 | 813.8 |
| 20260506190529 | 5 | 246 | 22.5 | 29.0 | 0.00 | 0.00 | 0.00 | 96 | 813.8 |
| 20260506190159 | 5 | 242 | 19.3 | 24.1 | 0.00 | 0.00 | 0.00 | 96 | 813.8 |
| 20260506190049 | 5 | 241 | 17.7 | 25.7 | 0.00 | 0.00 | 0.00 | 97 | 813.9 |
| 20260506185940 | 5 | 243 | 17.7 | 22.5 | 0.00 | 0.00 | 0.00 | 96 | 813.9 |
| 20260506185830 | 5 | 241 | 17.7 | 24.1 | 0.00 | 0.00 | 0.00 | 96 | 813.9 |
| 20260506185459 | 5 | 241 | 17.7 | 24.1 | 0.00 | 0.00 | 0.00 | 96 | 813.9 |
| 20260506185240 | 5 | 244 | 16.1 | 22.5 | 0.00 | 0.00 | 0.00 | 96 | 813.9 |
| 20260506185129 | 5 | 245 | 19.3 | 27.4 | 0.00 | 0.00 | 0.00 | 97 | 813.8 |
| 20260506185020 | 5 | 245 | 19.3 | 25.7 | 0.00 | 0.00 | 0.00 | 97 | 813.9 |
| 20260506184909 | 5 | 241 | 17.7 | 27.4 | 0.00 | 0.00 | 0.00 | 97 | 813.8 |
| 20260506184650 | 5 | 241 | 16.1 | 19.3 | 0.00 | 0.00 | 0.00 | 97 | 813.8 |
| 20260506184540 | 5 | 236 | 14.5 | 19.3 | 0.00 | 0.00 | 0.00 | 97 | 813.8 |
| 20260506184430 | 5 | 239 | 17.7 | 22.5 | 0.00 | 0.00 | 0.00 | 97 | 813.8 |
| 20260506184320 | 5 | 244 | 17.7 | 22.5 | 0.00 | 0.00 | 0.00 | 97 | 813.8 |
| 20260506184209 | 5 | 244 | 17.7 | 22.5 | 0.00 | 0.00 | 0.00 | 97 | 813.8 |
| 20260506184059 | 5 | 247 | 16.1 | 20.9 | 0.00 | 0.00 | 0.00 | 97 | 813.8 |
| 20260506183949 | 5 | 245 | 17.7 | 22.5 | 0.00 | 0.00 | 0.00 | 97 | 813.8 |
| 20260506183730 | 5 | 244 | 16.1 | 20.9 | 0.00 | 0.00 | 0.00 | 96 | 813.8 |
| 20260506183619 | 5 | 243 | 16.1 | 24.1 | 0.00 | 0.00 | 0.00 | 96 | 813.8 |
| 20260506183509 | 5 | 244 | 17.7 | 22.5 | 0.00 | 0.00 | 0.00 | 96 | 813.8 |
| 20260506183400 | 5 | 244 | 16.1 | 20.9 | 0.00 | 0.00 | 0.00 | 96 | 813.8 |
| 20260506183250 | 5 | 243 | 16.1 | 19.3 | 0.00 | 0.00 | 0.00 | 97 | 813.8 |
| 20260506183030 | 5 | 242 | 17.7 | 22.5 | 0.00 | 0.00 | 0.00 | 96 | 813.8 |
| 20260506182809 | 5 | 243 | 16.1 | 19.3 | 0.00 | 0.00 | 0.00 | 96 | 813.8 |
| 20260506182700 | 5 | 237 | 16.1 | 20.9 | 0.00 | 0.00 | 0.00 | 96 | 813.8 |
| 20260506182439 | 5 | 244 | 16.1 | 19.3 | 0.00 | 0.00 | 0.00 | 96 | 813.8 |
| 20260506182329 | 5 | 243 | 16.1 | 22.5 | 0.00 | 0.00 | 0.00 | 96 | 813.8 |
| 20260506182220 | 5 | 251 | 19.3 | 22.5 | 0.00 | 0.00 | 0.00 | 96 | 813.8 |
| 20260506182109 | 5 | 245 | 16.1 | 19.3 | 0.00 | 0.00 | 0.00 | 96 | 813.8 |
| 20260506181849 | 5 | 241 | 16.1 | 20.9 | 0.00 | 0.00 | 0.00 | 96 | 813.8 |
| 20260506181739 | 5 | 238 | 17.7 | 20.9 | 0.00 | 0.00 | 0.00 | 96 | 813.8 |
| 20260506181629 | 6 | 244 | 19.3 | 24.1 | 0.00 | 0.00 | 0.00 | 96 | 813.7 |
| 20260506181150 | 6 | 251 | 19.3 | 24.1 | 0.00 | 0.00 | 0.00 | 96 | 813.8 |
| 20260506181039 | 6 | 246 | 17.7 | 22.5 | 0.00 | 0.00 | 0.00 | 96 | 813.8 |
| 20260506180930 | 6 | 241 | 17.7 | 22.5 | 0.00 | 0.00 | 0.00 | 95 | 813.8 |
| 20260506180819 | 6 | 243 | 17.7 | 22.5 | 0.00 | 0.00 | 0.00 | 95 | 813.7 |
| 20260506180709 | 6 | 243 | 17.7 | 24.1 | 0.00 | 0.00 | 0.00 | 95 | 813.7 |
| 20260506180559 | 6 | 244 | 17.7 | 24.1 | 0.00 | 0.00 | 0.00 | 95 | 813.7 |
| 20260506180450 | 6 | 248 | 19.3 | 24.1 | 0.00 | 0.00 | 0.00 | 95 | 813.7 |
| 20260506180339 | 6 | 247 | 17.7 | 24.1 | 0.00 | 0.00 | 0.00 | 95 | 813.7 |
| 20260506180229 | 6 | 246 | 17.7 | 24.1 | 0.00 | 0.00 | 0.00 | 95 | 813.7 |
| 20260506180009 | 6 | 244 | 17.7 | 24.1 | 0.00 | 0.00 | 0.00 | 95 | 813.7 |
| 20260506175859 | 6 | 240 | 16.1 | 20.9 | 0.00 | 0.00 | 0.00 | 95 | 813.7 |
| 20260506175749 | 6 | 248 | 17.7 | 24.1 | 0.00 | 0.00 | 0.00 | 95 | 813.7 |
| 20260506175639 | 6 | 238 | 16.1 | 22.5 | 0.00 | 0.00 | 0.00 | 95 | 813.7 |
| 20260506175530 | 6 | 243 | 16.1 | 22.5 | 0.00 | 0.00 | 0.00 | 94 | 813.5 |
| 20260506175419 | 6 | 242 | 16.1 | 20.9 | 0.00 | 0.00 | 0.00 | 94 | 813.5 |
| 20260506175309 | 6 | 240 | 16.1 | 20.9 | 0.00 | 0.00 | 0.00 | 94 | 813.5 |
| 20260506175200 | 6 | 249 | 17.7 | 24.1 | 0.00 | 0.00 | 0.00 | 94 | 813.5 |
| 20260506175049 | 6 | 242 | 17.7 | 25.7 | 0.00 | 0.00 | 0.00 | 94 | 813.4 |
| 20260506174829 | 6 | 239 | 16.1 | 20.9 | 0.00 | 0.00 | 0.00 | 94 | 813.5 |
| 20260506174719 | 6 | 242 | 16.1 | 24.1 | 0.00 | 0.00 | 0.00 | 93 | 813.4 |
| 20260506174459 | 6 | 245 | 16.1 | 22.5 | 0.00 | 0.00 | 0.00 | 92 | 813.4 |
| 20260506174349 | 6 | 242 | 16.1 | 22.5 | 0.00 | 0.00 | 0.00 | 92 | 813.4 |
| 20260506174239 | 6 | 244 | 14.5 | 22.5 | 0.00 | 0.00 | 0.00 | 92 | 813.5 |
| 20260506174129 | 6 | 239 | 16.1 | 22.5 | 0.00 | 0.00 | 0.00 | 92 | 813.5 |
| 20260506174019 | 6 | 248 | 14.5 | 20.9 | 0.00 | 0.00 | 0.00 | 91 | 813.4 |
| 20260506173909 | 6 | 243 | 14.5 | 20.9 | 0.00 | 0.00 | 0.00 | 91 | 813.4 |
| 20260506173759 | 6 | 244 | 16.1 | 22.5 | 0.00 | 0.00 | 0.00 | 91 | 813.4 |
| 20260506173649 | 6 | 246 | 16.1 | 24.1 | 0.00 | 0.00 | 0.00 | 91 | 813.4 |
| 20260506173430 | 6 | 245 | 16.1 | 22.5 | 0.00 | 0.00 | 0.00 | 91 | 813.4 |
| 20260506173209 | 6 | 243 | 16.1 | 24.1 | 0.00 | 0.00 | 0.00 | 91 | 813.5 |
| 20260506173059 | 6 | 240 | 16.1 | 24.1 | 0.00 | 0.00 | 0.00 | 90 | 813.4 |
| 20260506172839 | 6 | 246 | 16.1 | 25.7 | 0.00 | 0.00 | 0.00 | 90 | 813.4 |
| 20260506172730 | 6 | 243 | 17.7 | 24.1 | 0.00 | 0.00 | 0.00 | 90 | 813.4 |
| 20260506172619 | 6 | 245 | 19.3 | 27.4 | 0.00 | 0.00 | 0.00 | 90 | 813.4 |
| 20260506172359 | 6 | 236 | 16.1 | 24.1 | 0.00 | 0.00 | 0.00 | 89 | 813.4 |
| 20260506172249 | 6 | 242 | 16.1 | 24.1 | 0.00 | 0.00 | 0.00 | 89 | 813.4 |
| 20260506172140 | 6 | 242 | 16.1 | 20.9 | 0.00 | 0.00 | 0.00 | 89 | 813.4 |
| 20260506172029 | 6 | 243 | 17.7 | 25.7 | 0.00 | 0.00 | 0.00 | 89 | 813.4 |
| 20260506171659 | 6 | 239 | 16.1 | 24.1 | 0.00 | 0.00 | 0.00 | 89 | 813.4 |
| 20260506171549 | 7 | 236 | 16.1 | 22.5 | 0.00 | 0.00 | 0.00 | 89 | 813.4 |
| 20260506171439 | 7 | 241 | 16.1 | 24.1 | 0.00 | 0.00 | 0.00 | 88 | 813.4 |
| 20260506171329 | 7 | 238 | 16.1 | 24.1 | 0.00 | 0.00 | 0.00 | 88 | 813.4 |
| 20260506171109 | 7 | 238 | 16.1 | 22.5 | 0.00 | 0.00 | 0.00 | 87 | 813.4 |
| 20260506170849 | 7 | 239 | 16.1 | 22.5 | 0.00 | 0.00 | 0.00 | 87 | 813.4 |
| 20260506170632 | 7 | 246 | 16.1 | 24.1 | 0.00 | 0.00 | 0.00 | 87 | 813.4 |
| 20260506170519 | 7 | 245 | 16.1 | 22.5 | 0.00 | 0.00 | 0.00 | 87 | 813.4 |
| 20260506170409 | 7 | 242 | 14.5 | 27.4 | 0.00 | 0.00 | 0.00 | 86 | 813.4 |
| 20260506170259 | 7 | 244 | 17.7 | 24.1 | 0.00 | 0.00 | 0.00 | 86 | 813.4 |
| 20260506170149 | 7 | 242 | 19.3 | 27.4 | 0.00 | 0.00 | 0.00 | 86 | 813.4 |
| 20260506170039 | 7 | 239 | 16.1 | 22.5 | 0.00 | 0.00 | 0.00 | 86 | 813.4 |
| 20260506165929 | 7 | 239 | 16.1 | 24.1 | 0.00 | 0.00 | 0.00 | 86 | 813.4 |
| 20260506165819 | 7 | 241 | 16.1 | 22.5 | 0.00 | 0.00 | 0.00 | 86 | 813.4 |
| 20260506165709 | 7 | 243 | 17.7 | 24.1 | 0.00 | 0.00 | 0.00 | 86 | 813.4 |
| 20260506165559 | 7 | 243 | 16.1 | 24.1 | 0.00 | 0.00 | 0.00 | 85 | 813.4 |
| 20260506165449 | 7 | 240 | 17.7 | 25.7 | 0.00 | 0.00 | 0.00 | 85 | 813.4 |
| 20260506165340 | 7 | 246 | 16.1 | 22.5 | 0.00 | 0.00 | 0.00 | 85 | 813.4 |
| 20260506165229 | 7 | 243 | 16.1 | 20.9 | 0.00 | 0.00 | 0.00 | 84 | 813.4 |
| 20260506165009 | 7 | 239 | 16.1 | 20.9 | 0.00 | 0.00 | 0.00 | 83 | 813.4 |
| 20260506164859 | 7 | 244 | 16.1 | 24.1 | 0.00 | 0.00 | 0.00 | 83 | 813.4 |
| 20260506164749 | 7 | 240 | 14.5 | 22.5 | 0.00 | 0.00 | 0.00 | 83 | 813.4 |
| 20260506164639 | 7 | 245 | 14.5 | 20.9 | 0.00 | 0.00 | 0.00 | 83 | 813.4 |
| 20260506164529 | 7 | 245 | 17.7 | 27.4 | 0.00 | 0.00 | 0.00 | 83 | 813.4 |
| 20260506164419 | 7 | 246 | 19.3 | 27.4 | 0.00 | 0.00 | 0.00 | 83 | 813.4 |
| 20260506164309 | 7 | 253 | 16.1 | 22.5 | 0.00 | 0.00 | 0.00 | 83 | 813.4 |
| 20260506164159 | 7 | 251 | 16.1 | 22.5 | 0.00 | 0.00 | 0.00 | 83 | 813.4 |
| 20260506164049 | 7 | 247 | 16.1 | 22.5 | 0.00 | 0.00 | 0.00 | 83 | 813.5 |
| 20260506163939 | 7 | 251 | 16.1 | 20.9 | 0.00 | 0.00 | 0.00 | 82 | 813.4 |
| 20260506163829 | 7 | 245 | 12.9 | 24.1 | 0.00 | 0.00 | 0.00 | 83 | 813.5 |
| 20260506163719 | 7 | 243 | 16.1 | 20.9 | 0.00 | 0.00 | 0.00 | 82 | 813.4 |
| 20260506163609 | 7 | 246 | 16.1 | 25.7 | 0.00 | 0.00 | 0.00 | 82 | 813.4 |
| 20260506163459 | 7 | 238 | 16.1 | 25.7 | 0.00 | 0.00 | 0.00 | 82 | 813.5 |
| 20260506163349 | 7 | 241 | 14.5 | 19.3 | 0.00 | 0.00 | 0.00 | 81 | 813.4 |
| 20260506163240 | 7 | 244 | 14.5 | 19.3 | 0.00 | 0.00 | 0.00 | 81 | 813.5 |
| 20260506163129 | 7 | 240 | 14.5 | 22.5 | 0.00 | 0.00 | 0.00 | 82 | 813.4 |
| 20260506163019 | 7 | 248 | 14.5 | 22.5 | 0.00 | 0.00 | 0.00 | 82 | 813.4 |
| 20260506162909 | 7 | 236 | 14.5 | 20.9 | 0.00 | 0.00 | 0.00 | 82 | 813.4 |
| 20260506162800 | 7 | 249 | 16.1 | 22.5 | 0.00 | 0.00 | 0.00 | 82 | 813.4 |
| 20260506162649 | 7 | 240 | 12.9 | 19.3 | 0.00 | 0.00 | 0.00 | 82 | 813.4 |
| 20260506162539 | 7 | 240 | 12.9 | 17.7 | 0.00 | 0.00 | 0.00 | 82 | 813.5 |
| 20260506162429 | 7 | 237 | 14.5 | 20.9 | 0.00 | 0.00 | 0.00 | 80 | 813.4 |
| 20260506162059 | 7 | 249 | 12.9 | 19.3 | 0.00 | 0.00 | 0.00 | 79 | 813.5 |
| 20260506161949 | 7 | 242 | 16.1 | 20.9 | 0.00 | 0.00 | 0.00 | 79 | 813.4 |
| 20260506161839 | 7 | 249 | 16.1 | 20.9 | 0.00 | 0.00 | 0.00 | 78 | 813.4 |
| 20260506161729 | 8 | 249 | 14.5 | 20.9 | 0.00 | 0.00 | 0.00 | 79 | 813.5 |
| 20260506161619 | 8 | 250 | 16.1 | 22.5 | 0.00 | 0.00 | 0.00 | 78 | 813.5 |
| 20260506161510 | 8 | 242 | 12.9 | 17.7 | 0.00 | 0.00 | 0.00 | 78 | 813.5 |
| 20260506161140 | 8 | 251 | 16.1 | 24.1 | 0.00 | 0.00 | 0.00 | 76 | 813.4 |
| 20260506161029 | 8 | 242 | 16.1 | 24.1 | 0.00 | 0.00 | 0.00 | 76 | 813.5 |
| 20260506160919 | 8 | 246 | 14.5 | 20.9 | 0.00 | 0.00 | 0.00 | 76 | 813.4 |
| 20260506160809 | 8 | 245 | 16.1 | 22.5 | 0.00 | 0.00 | 0.00 | 75 | 813.4 |
| 20260506160659 | 8 | 247 | 12.9 | 17.7 | 0.00 | 0.00 | 0.00 | 74 | 813.4 |
| 20260506160549 | 8 | 248 | 11.3 | 17.7 | 0.00 | 0.00 | 0.00 | 73 | 813.4 |
| 20260506160329 | 8 | 252 | 12.9 | 17.7 | 0.00 | 0.00 | 0.00 | 72 | 813.5 |
| 20260506160219 | 8 | 249 | 14.5 | 22.5 | 0.00 | 0.00 | 0.00 | 72 | 813.5 |
| 20260506160109 | 8 | 250 | 12.9 | 19.3 | 0.00 | 0.00 | 0.00 | 73 | 813.5 |
| 20260506155959 | 8 | 247 | 14.5 | 22.5 | 0.00 | 0.00 | 0.00 | 71 | 813.5 |
| 20260506155849 | 8 | 245 | 14.5 | 20.9 | 0.00 | 0.00 | 0.00 | 71 | 813.4 |
| 20260506155739 | 8 | 257 | 14.5 | 24.1 | 0.00 | 0.00 | 0.00 | 71 | 813.5 |
| 20260506155629 | 8 | 256 | 16.1 | 24.1 | 0.00 | 0.00 | 0.00 | 70 | 813.5 |
| 20260506155519 | 8 | 247 | 14.5 | 22.5 | 0.00 | 0.00 | 0.00 | 70 | 813.5 |
| 20260506155409 | 8 | 249 | 16.1 | 24.1 | 0.00 | 0.00 | 0.00 | 71 | 813.4 |
| 20260506155259 | 8 | 246 | 14.5 | 20.9 | 0.00 | 0.00 | 0.00 | 70 | 813.5 |
| 20260506155149 | 8 | 246 | 14.5 | 20.9 | 0.00 | 0.00 | 0.00 | 69 | 813.4 |
| 20260506155039 | 9 | 243 | 12.9 | 20.9 | 0.00 | 0.00 | 0.00 | 68 | 813.5 |
| 20260506154929 | 9 | 251 | 17.7 | 24.1 | 0.00 | 0.00 | 0.00 | 68 | 813.5 |
| 20260506154819 | 9 | 253 | 16.1 | 24.1 | 0.00 | 0.00 | 0.00 | 68 | 813.4 |
| 20260506154709 | 9 | 250 | 17.7 | 25.7 | 0.00 | 0.00 | 0.00 | 68 | 813.4 |
| 20260506154559 | 9 | 249 | 16.1 | 27.4 | 0.00 | 0.00 | 0.00 | 67 | 813.5 |
| 20260506154339 | 9 | 240 | 14.5 | 24.1 | 0.00 | 0.00 | 0.00 | 64 | 813.5 |
| 20260506154229 | 10 | 241 | 14.5 | 20.9 | 0.00 | 0.00 | 0.00 | 64 | 813.7 |
| 20260506154119 | 10 | 246 | 16.1 | 22.5 | 0.00 | 0.00 | 0.00 | 64 | 813.7 |
| 20260506153859 | 10 | 251 | 16.1 | 25.7 | 0.00 | 0.00 | 0.00 | 63 | 813.7 |
| 20260506153749 | 10 | 248 | 16.1 | 25.7 | 0.00 | 0.00 | 0.00 | 64 | 813.5 |
| 20260506153639 | 10 | 245 | 16.1 | 25.7 | 0.00 | 0.00 | 0.00 | 64 | 813.7 |
| 20260506153419 | 10 | 245 | 17.7 | 24.1 | 0.00 | 0.00 | 0.00 | 63 | 813.5 |
| 20260506153202 | 10 | 243 | 16.1 | 24.1 | 0.00 | 0.00 | 0.00 | 61 | 813.5 |
| 20260506153049 | 10 | 249 | 14.5 | 22.5 | 0.00 | 0.00 | 0.00 | 62 | 813.5 |
| 20260506152939 | 10 | 247 | 16.1 | 22.5 | 0.00 | 0.00 | 0.00 | 60 | 813.7 |
| 20260506152829 | 10 | 246 | 16.1 | 22.5 | 0.00 | 0.00 | 0.00 | 62 | 813.7 |
| 20260506152719 | 10 | 252 | 19.3 | 25.7 | 0.00 | 0.00 | 0.00 | 63 | 813.7 |
| 20260506152609 | 10 | 253 | 16.1 | 27.4 | 0.00 | 0.00 | 0.00 | 63 | 813.7 |
| 20260506152349 | 10 | 252 | 20.9 | 29.0 | 0.00 | 0.00 | 0.00 | 59 | 813.7 |
| 20260506152130 | 10 | 248 | 14.5 | 20.9 | 0.00 | 0.00 | 0.00 | 62 | 813.8 |
| 20260506152019 | 10 | 245 | 14.5 | 25.7 | 0.00 | 0.00 | 0.00 | 63 | 813.8 |
| 20260506151759 | 10 | 253 | 16.1 | 25.7 | 0.00 | 0.00 | 0.00 | 64 | 813.8 |
| 20260506151649 | 10 | 242 | 14.5 | 24.1 | 0.00 | 0.00 | 0.00 | 64 | 813.8 |
| 20260506151539 | 10 | 242 | 14.5 | 22.5 | 0.00 | 0.00 | 0.00 | 63 | 813.8 |
| 20260506151429 | 10 | 254 | 17.7 | 25.7 | 0.00 | 0.00 | 0.00 | 66 | 813.8 |
| 20260506151210 | 10 | 263 | 19.3 | 25.7 | 0.00 | 0.00 | 0.00 | 68 | 813.8 |
| 20260506151059 | 10 | 249 | 17.7 | 25.7 | 0.00 | 0.00 | 0.00 | 68 | 813.8 |
| 20260506150949 | 10 | 250 | 16.1 | 27.4 | 0.00 | 0.00 | 0.00 | 68 | 813.8 |
| 20260506150839 | 10 | 257 | 14.5 | 24.1 | 0.00 | 0.00 | 0.00 | 68 | 813.8 |
| 20260506150729 | 10 | 258 | 19.3 | 25.7 | 0.00 | 0.00 | 0.00 | 67 | 813.8 |
| 20260506150619 | 10 | 244 | 14.5 | 22.5 | 0.00 | 0.00 | 0.00 | 72 | 813.8 |
| 20260506150359 | 10 | 248 | 12.9 | 24.1 | 0.00 | 0.00 | 0.00 | 69 | 813.8 |
| 20260506150249 | 10 | 235 | 16.1 | 22.5 | 0.00 | 0.00 | 0.00 | 69 | 813.8 |
| 20260506150139 | 10 | 247 | 14.5 | 27.4 | 0.00 | 0.00 | 0.00 | 71 | 813.8 |
| 20260506150029 | 10 | 246 | 16.1 | 25.7 | 0.00 | 0.00 | 0.00 | 71 | 813.8 |
| 20260506145919 | 10 | 233 | 17.7 | 22.5 | 0.00 | 0.00 | 0.00 | 70 | 813.8 |
| 20260506145809 | 10 | 248 | 14.5 | 30.6 | 0.00 | 0.00 | 0.00 | 72 | 813.8 |
| 20260506145700 | 10 | 249 | 16.1 | 24.1 | 0.00 | 0.00 | 0.00 | 73 | 813.8 |
| 20260506145549 | 10 | 233 | 16.1 | 22.5 | 0.00 | 0.00 | 0.00 | 70 | 813.8 |
| 20260506145447 | 10 | 240 | 16.1 | 29.0 | 0.00 | 0.00 | 0.00 | 71 | 813.8 |
| 20260506145329 | 10 | 237 | 16.1 | 24.1 | 0.00 | 0.00 | 0.00 | 70 | 813.8 |
| 20260506145222 | 10 | 240 | 16.1 | 24.1 | 0.00 | 0.00 | 0.00 | 70 | 813.7 |
| 20260506145109 | 10 | 266 | 16.1 | 29.0 | 0.00 | 0.00 | 0.00 | 70 | 813.8 |
| 20260506144959 | 10 | 255 | 16.1 | 25.7 | 0.00 | 0.00 | 0.00 | 71 | 813.8 |
| 20260506144740 | 10 | 250 | 16.1 | 24.1 | 0.00 | 0.00 | 0.00 | 72 | 813.8 |
| 20260506144629 | 10 | 252 | 16.1 | 22.5 | 0.00 | 0.00 | 0.00 | 72 | 813.8 |
| 20260506144519 | 10 | 253 | 14.5 | 29.0 | 0.00 | 0.00 | 0.00 | 72 | 813.8 |
| 20260506144409 | 10 | 253 | 16.1 | 27.4 | 0.00 | 0.00 | 0.00 | 70 | 813.8 |
| 20260506144259 | 10 | 241 | 19.3 | 29.0 | 0.00 | 0.00 | 0.00 | 70 | 813.7 |
| 20260506144149 | 10 | 247 | 17.7 | 29.0 | 0.00 | 0.00 | 0.00 | 71 | 813.8 |
| 20260506144039 | 10 | 252 | 17.7 | 27.4 | 0.00 | 0.00 | 0.00 | 70 | 813.7 |
| 20260506143929 | 10 | 255 | 16.1 | 25.7 | 0.00 | 0.00 | 0.00 | 69 | 813.8 |
| 20260506143822 | 10 | 247 | 17.7 | 27.4 | 0.00 | 0.00 | 0.00 | 69 | 813.7 |
| 20260506143709 | 10 | 253 | 17.7 | 29.0 | 0.00 | 0.00 | 0.00 | 70 | 813.8 |
| 20260506143559 | 10 | 241 | 16.1 | 24.1 | 0.00 | 0.00 | 0.00 | 69 | 813.8 |
| 20260506143339 | 10 | 255 | 16.1 | 25.7 | 0.00 | 0.00 | 0.00 | 70 | 813.8 |
| 20260506143229 | 10 | 247 | 16.1 | 27.4 | 0.00 | 0.00 | 0.00 | 71 | 813.8 |
| 20260506143119 | 10 | 243 | 16.1 | 22.5 | 0.00 | 0.00 | 0.00 | 70 | 813.8 |
| 20260506142859 | 10 | 256 | 16.1 | 24.1 | 0.00 | 0.00 | 0.00 | 72 | 813.8 |
| 20260506142530 | 10 | 251 | 16.1 | 27.4 | 0.00 | 0.00 | 0.00 | 74 | 813.8 |
| 20260506142419 | 10 | 256 | 16.1 | 22.5 | 0.00 | 0.00 | 0.00 | 72 | 813.8 |
| 20260506142049 | 10 | 255 | 16.1 | 27.4 | 0.00 | 0.00 | 0.00 | 72 | 813.8 |
| 20260506141939 | 10 | 242 | 12.9 | 20.9 | 0.00 | 0.00 | 0.00 | 71 | 813.8 |
| 20260506141830 | 10 | 249 | 14.5 | 22.5 | 0.00 | 0.00 | 0.00 | 70 | 813.8 |
| 20260506141719 | 10 | 251 | 12.9 | 20.9 | 0.00 | 0.00 | 0.00 | 69 | 813.8 |
| 20260506141609 | 10 | 243 | 16.1 | 25.7 | 0.00 | 0.00 | 0.00 | 69 | 813.7 |
| 20260506141459 | 10 | 243 | 17.7 | 22.5 | 0.00 | 0.00 | 0.00 | 68 | 813.7 |
| 20260506141240 | 10 | 249 | 16.1 | 22.5 | 0.00 | 0.00 | 0.00 | 68 | 813.8 |
| 20260506141131 | 10 | 237 | 16.1 | 25.7 | 0.00 | 0.00 | 0.00 | 67 | 813.7 |
| 20260506141019 | 10 | 242 | 14.5 | 24.1 | 0.00 | 0.00 | 0.00 | 69 | 813.7 |
| 20260506140909 | 10 | 250 | 12.9 | 22.5 | 0.00 | 0.00 | 0.00 | 70 | 813.7 |
| 20260506140802 | 10 | 252 | 19.3 | 33.8 | 0.00 | 0.00 | 0.00 | 70 | 813.5 |
| 20260506140649 | 10 | 252 | 16.1 | 24.1 | 0.00 | 0.00 | 0.00 | 71 | 813.8 |
| 20260506140432 | 10 | 227 | 19.3 | 27.4 | 0.00 | 0.00 | 0.00 | 71 | 813.8 |
| 20260506140319 | 10 | 238 | 16.1 | 24.1 | 0.00 | 0.00 | 0.00 | 68 | 813.7 |
| 20260506140209 | 10 | 242 | 19.3 | 30.6 | 0.00 | 0.00 | 0.00 | 67 | 813.7 |
| 20260506140104 | 10 | 232 | 16.1 | 25.7 | 0.00 | 0.00 | 0.00 | 70 | 813.7 |
| 20260506135843 | 9 | 258 | 11.3 | 24.1 | 0.00 | 0.00 | 0.00 | 75 | 813.7 |
| 20260506135729 | 9 | 253 | 16.1 | 24.1 | 0.00 | 0.00 | 0.00 | 72 | 813.7 |
| 20260506135622 | 9 | 245 | 14.5 | 20.9 | 0.00 | 0.00 | 0.00 | 75 | 813.8 |
| 20260506135509 | 9 | 230 | 12.9 | 20.9 | 0.00 | 0.00 | 0.00 | 70 | 813.8 |
| 20260506135249 | 9 | 215 | 16.1 | 22.5 | 0.00 | 0.00 | 0.00 | 69 | 813.7 |
| 20260506135029 | 9 | 231 | 14.5 | 24.1 | 0.00 | 0.00 | 0.00 | 74 | 813.8 |
| 20260506134809 | 8 | 236 | 12.9 | 19.3 | 0.00 | 0.00 | 0.00 | 76 | 813.8 |
| 20260506134439 | 8 | 239 | 12.9 | 19.3 | 0.00 | 0.00 | 0.00 | 76 | 813.8 |
| 20260506134329 | 8 | 235 | 14.5 | 19.3 | 0.00 | 0.00 | 0.00 | 75 | 813.8 |
| 20260506134222 | 8 | 235 | 16.1 | 24.1 | 0.00 | 0.00 | 0.00 | 75 | 813.7 |
| 20260506134109 | 8 | 251 | 12.9 | 19.3 | 0.00 | 0.00 | 0.00 | 77 | 813.8 |
| 20260506133629 | 8 | 252 | 11.3 | 17.7 | 0.00 | 0.00 | 0.00 | 73 | 813.8 |
| 20260506133519 | 8 | 239 | 12.9 | 17.7 | 0.00 | 0.00 | 0.00 | 75 | 813.8 |
| 20260506133259 | 8 | 245 | 12.9 | 19.3 | 0.00 | 0.00 | 0.00 | 74 | 813.8 |
| 20260506133149 | 8 | 244 | 14.5 | 20.9 | 0.00 | 0.00 | 0.00 | 74 | 813.8 |
| 20260506133039 | 8 | 246 | 16.1 | 24.1 | 0.00 | 0.00 | 0.00 | 73 | 813.8 |
| 20260506132929 | 8 | 237 | 14.5 | 24.1 | 0.00 | 0.00 | 0.00 | 74 | 813.8 |
| 20260506132709 | 8 | 240 | 12.9 | 17.7 | 0.00 | 0.00 | 0.00 | 74 | 813.8 |
| 20260506132449 | 8 | 244 | 14.5 | 24.1 | 0.00 | 0.00 | 0.00 | 74 | 813.8 |
| 20260506132339 | 8 | 252 | 16.1 | 22.5 | 0.00 | 0.00 | 0.00 | 73 | 813.8 |
| 20260506132229 | 7 | 245 | 17.7 | 27.4 | 0.00 | 0.00 | 0.00 | 75 | 813.8 |
| 20260506132119 | 7 | 240 | 17.7 | 24.1 | 0.00 | 0.00 | 0.00 | 75 | 813.8 |
| 20260506132010 | 7 | 244 | 16.1 | 22.5 | 0.00 | 0.00 | 0.00 | 75 | 813.8 |
| 20260506131859 | 7 | 233 | 14.5 | 25.7 | 0.00 | 0.00 | 0.00 | 75 | 813.9 |
| 20260506131750 | 7 | 228 | 12.9 | 20.9 | 0.00 | 0.00 | 0.00 | 75 | 813.9 |
| 20260506131652 | 7 | 232 | 12.9 | 19.3 | 0.00 | 0.00 | 0.00 | 75 | 813.9 |
| 20260506131537 | 7 | 236 | 14.5 | 22.5 | 0.00 | 0.00 | 0.00 | 75 | 813.8 |
| 20260506131310 | 7 | 217 | 11.3 | 19.3 | 0.00 | 0.00 | 0.00 | 69 | 813.8 |
| 20260506131200 | 7 | 225 | 19.3 | 30.6 | 0.00 | 0.00 | 0.00 | 72 | 813.8 |
| 20260506130831 | 7 | 225 | 14.5 | 22.5 | 0.00 | 0.00 | 0.00 | 76 | 813.8 |
| 20260506130720 | 7 | 238 | 16.1 | 25.7 | 0.00 | 0.00 | 0.00 | 75 | 813.8 |
| 20260506130613 | 7 | 238 | 16.1 | 25.7 | 0.00 | 0.00 | 0.00 | 75 | 813.7 |
| 20260506130459 | 7 | 236 | 16.1 | 33.8 | 0.00 | 0.00 | 0.00 | 74 | 813.8 |
| 20260506130353 | 7 | 221 | 16.1 | 25.7 | 0.00 | 0.00 | 0.00 | 76 | 813.8 |
| 20260506130133 | 7 | 235 | 14.5 | 20.9 | 0.00 | 0.00 | 0.00 | 75 | 813.9 |
| 20260506130019 | 7 | 235 | 16.1 | 22.5 | 0.00 | 0.00 | 0.00 | 75 | 813.9 |
| 20260506125913 | 7 | 239 | 14.5 | 24.1 | 0.00 | 0.00 | 0.00 | 74 | 813.8 |
| 20260506125800 | 7 | 240 | 16.1 | 25.7 | 0.00 | 0.00 | 0.00 | 74 | 813.8 |
| 20260506125649 | 7 | 239 | 16.1 | 24.1 | 0.00 | 0.00 | 0.00 | 76 | 813.9 |
| 20260506125539 | 7 | 228 | 16.1 | 24.1 | 0.00 | 0.00 | 0.00 | 75 | 813.8 |
| 20260506125430 | 7 | 230 | 16.1 | 24.1 | 0.00 | 0.00 | 0.00 | 74 | 813.9 |
| 20260506125320 | 7 | 236 | 19.3 | 25.7 | 0.00 | 0.00 | 0.00 | 75 | 813.9 |
| 20260506125209 | 7 | 246 | 17.7 | 27.4 | 0.00 | 0.00 | 0.00 | 75 | 813.9 |
| 20260506124949 | 7 | 214 | 19.3 | 29.0 | 0.00 | 0.00 | 0.00 | 74 | 814.1 |
| 20260506124839 | 7 | 231 | 16.1 | 20.9 | 0.00 | 0.00 | 0.00 | 74 | 814.1 |
| 20260506124731 | 7 | 220 | 14.5 | 20.9 | 0.00 | 0.00 | 0.00 | 73 | 814.2 |
| 20260506124619 | 7 | 228 | 16.1 | 25.7 | 0.00 | 0.00 | 0.00 | 74 | 814.2 |
| 20260506124359 | 7 | 223 | 14.5 | 22.5 | 0.00 | 0.00 | 0.00 | 74 | 814.2 |
| 20260506124030 | 7 | 217 | 17.7 | 38.6 | 0.00 | 0.00 | 0.00 | 74 | 814.2 |
| 20260506123700 | 8 | 213 | 11.3 | 19.3 | 0.00 | 0.00 | 0.00 | 71 | 814.2 |
| 20260506123444 | 8 | 227 | 14.5 | 22.5 | 0.00 | 0.00 | 0.00 | 71 | 814.2 |
| 20260506123219 | 8 | 234 | 9.7 | 16.1 | 0.00 | 0.00 | 0.00 | 70 | 814.2 |
| 20260506123004 | 8 | 216 | 20.9 | 25.7 | 0.00 | 0.00 | 0.00 | 69 | 814.2 |
| 20260506122850 | 8 | 232 | 12.9 | 24.1 | 0.00 | 0.00 | 0.00 | 72 | 814.2 |
| 20260506122740 | 8 | 238 | 9.7 | 19.3 | 0.00 | 0.00 | 0.00 | 74 | 814.2 |
| 20260506122629 | 8 | 246 | 8.0 | 12.9 | 0.00 | 0.00 | 0.00 | 71 | 814.2 |
| 20260506122523 | 8 | 221 | 6.4 | 11.3 | 0.00 | 0.00 | 0.00 | 70 | 814.2 |
| 20260506122410 | 8 | 245 | 4.8 | 12.9 | 0.00 | 0.00 | 0.00 | 68 | 814.2 |
| 20260506122305 | 8 | 251 | 16.1 | 24.1 | 0.00 | 0.00 | 0.00 | 67 | 814.2 |
| 20260506122149 | 8 | 216 | 16.1 | 22.5 | 0.00 | 0.00 | 0.00 | 65 | 814.2 |
| 20260506121822 | 9 | 228 | 11.3 | 19.3 | 0.00 | 0.00 | 0.00 | 65 | 814.2 |
| 20260506121559 | 9 | 230 | 12.9 | 20.9 | 0.00 | 0.00 | 0.00 | 63 | 814.2 |
| 20260506121452 | 9 | 230 | 12.9 | 22.5 | 0.00 | 0.00 | 0.00 | 63 | 814.2 |
| 20260506121231 | 10 | 241 | 8.0 | 19.3 | 0.00 | 0.00 | 0.00 | 62 | 814.2 |
| 20260506121009 | 10 | 238 | 8.0 | 16.1 | 0.00 | 0.00 | 0.00 | 64 | 814.2 |
| 20260506120529 | 10 | 241 | 16.1 | 25.7 | 0.00 | 0.00 | 0.00 | 62 | 813.9 |
| 20260506120422 | 11 | 205 | 9.7 | 19.3 | 0.00 | 0.00 | 0.00 | 62 | 814.1 |
| 20260506120311 | 11 | 240 | 9.7 | 16.1 | 0.00 | 0.00 | 0.00 | 62 | 814.1 |
| 20260506120052 | 11 | 234 | 8.0 | 19.3 | 0.00 | 0.00 | 0.00 | 61 | 813.9 |
| 20260506115941 | 11 | 236 | 6.4 | 12.9 | 0.00 | 0.00 | 0.00 | 60 | 813.9 |
| 20260506115829 | 12 | 251 | 16.1 | 30.6 | 0.00 | 0.00 | 0.00 | 58 | 813.9 |
| 20260506115719 | 12 | 233 | 9.7 | 16.1 | 0.00 | 0.00 | 0.00 | 58 | 814.1 |
| 20260506115612 | 12 | 230 | 9.7 | 20.9 | 0.00 | 0.00 | 0.00 | 57 | 814.1 |
| 20260506115459 | 12 | 227 | 12.9 | 24.1 | 0.00 | 0.00 | 0.00 | 57 | 813.8 |
| 20260506115349 | 12 | 247 | 11.3 | 24.1 | 0.00 | 0.00 | 0.00 | 58 | 813.8 |
| 20260506115241 | 12 | 251 | 9.7 | 19.3 | 0.00 | 0.00 | 0.00 | 59 | 814.1 |
| 20260506115134 | 12 | 239 | 12.9 | 24.1 | 0.00 | 0.00 | 0.00 | 60 | 813.9 |
| 20260506115019 | 11 | 238 | 16.1 | 24.1 | 0.00 | 0.00 | 0.00 | 60 | 814.1 |
| 20260506114649 | 11 | 240 | 12.9 | 25.7 | 0.00 | 0.00 | 0.00 | 60 | 814.1 |
| 20260506114539 | 11 | 245 | 8.0 | 16.1 | 0.00 | 0.00 | 0.00 | 61 | 813.9 |
| 20260506114429 | 11 | 251 | 11.3 | 24.1 | 0.00 | 0.00 | 0.00 | 60 | 813.9 |
| 20260506114319 | 11 | 258 | 16.1 | 25.7 | 0.00 | 0.00 | 0.00 | 63 | 814.1 |
| 20260506114209 | 11 | 252 | 14.5 | 32.2 | 0.00 | 0.00 | 0.00 | 64 | 814.1 |
| 20260506113732 | 10 | 228 | 12.9 | 22.5 | 0.00 | 0.00 | 0.00 | 63 | 814.1 |
| 20260506113359 | 11 | 239 | 14.5 | 24.1 | 0.00 | 0.00 | 0.00 | 62 | 814.1 |
| 20260506113249 | 11 | 253 | 16.1 | 25.7 | 0.00 | 0.00 | 0.00 | 60 | 814.1 |
| 20260506113029 | 12 | 270 | 12.9 | 25.7 | 0.00 | 0.00 | 0.00 | 62 | 814.2 |
| 20260506112919 | 12 | 228 | 6.4 | 17.7 | 0.00 | 0.00 | 0.00 | 59 | 814.2 |
| 20260506112549 | 12 | 217 | 11.3 | 16.1 | 0.00 | 0.00 | 0.00 | 59 | 814.2 |
| 20260506112439 | 12 | 243 | 12.9 | 24.1 | 0.00 | 0.00 | 0.00 | 59 | 814.2 |
| 20260506112219 | 12 | 272 | 12.9 | 20.9 | 0.00 | 0.00 | 0.00 | 61 | 814.2 |
| 20260506112109 | 12 | 249 | 9.7 | 19.3 | 0.00 | 0.00 | 0.00 | 62 | 814.2 |
| 20260506111959 | 12 | 267 | 8.0 | 22.5 | 0.00 | 0.00 | 0.00 | 62 | 814.2 |
| 20260506111849 | 12 | 290 | 6.4 | 16.1 | 0.00 | 0.00 | 0.00 | 60 | 814.2 |
| 20260506111739 | 12 | 273 | 11.3 | 19.3 | 0.00 | 0.00 | 0.00 | 62 | 814.2 |
| 20260506111629 | 12 | 247 | 12.9 | 22.5 | 0.00 | 0.00 | 0.00 | 61 | 814.2 |
| 20260506111519 | 12 | 261 | 12.9 | 25.7 | 0.00 | 0.00 | 0.00 | 62 | 814.2 |
| 20260506111409 | 12 | 236 | 11.3 | 22.5 | 0.00 | 0.00 | 0.00 | 59 | 814.2 |
| 20260506111259 | 12 | 243 | 8.0 | 17.7 | 0.00 | 0.00 | 0.00 | 61 | 814.2 |
| 20260506111149 | 12 | 259 | 11.3 | 16.1 | 0.00 | 0.00 | 0.00 | 60 | 814.2 |
| 20260506111039 | 12 | 230 | 8.0 | 20.9 | 0.00 | 0.00 | 0.00 | 61 | 814.2 |
| 20260506110929 | 12 | 233 | 8.0 | 19.3 | 0.00 | 0.00 | 0.00 | 63 | 814.2 |
| 20260506110819 | 12 | 260 | 11.3 | 22.5 | 0.00 | 0.00 | 0.00 | 62 | 814.2 |
| 20260506110709 | 12 | 276 | 12.9 | 19.3 | 0.00 | 0.00 | 0.00 | 59 | 814.2 |
| 20260506110559 | 12 | 266 | 12.9 | 20.9 | 0.00 | 0.00 | 0.00 | 62 | 814.2 |
| 20260506110449 | 12 | 262 | 6.4 | 12.9 | 0.00 | 0.00 | 0.00 | 63 | 814.2 |
| 20260506110339 | 12 | 239 | 11.3 | 20.9 | 0.00 | 0.00 | 0.00 | 62 | 814.2 |
| 20260506110229 | 12 | 256 | 9.7 | 24.1 | 0.00 | 0.00 | 0.00 | 63 | 814.2 |
| 20260506110016 | 12 | 241 | 11.3 | 25.7 | 0.00 | 0.00 | 0.00 | 62 | 814.2 |
| 20260506105858 | 12 | 279 | 11.3 | 25.7 | 0.00 | 0.00 | 0.00 | 62 | 814.2 |
| 20260506105642 | 12 | 254 | 12.9 | 24.1 | 0.00 | 0.00 | 0.00 | 62 | 814.2 |
| 20260506105529 | 12 | 264 | 6.4 | 9.7 | 0.00 | 0.00 | 0.00 | 64 | 814.2 |
| 20260506105418 | 12 | 316 | 8.0 | 16.1 | 0.00 | 0.00 | 0.00 | 65 | 814.2 |
| 20260506105309 | 12 | 62 | 6.4 | 24.1 | 0.00 | 0.00 | 0.00 | 65 | 814.2 |
| 20260506104939 | 12 | 216 | 12.9 | 20.9 | 0.00 | 0.00 | 0.00 | 63 | 814.2 |
| 20260506104719 | 12 | 288 | 8.0 | 14.5 | 0.00 | 0.00 | 0.00 | 66 | 814.2 |
| 20260506104459 | 12 | 253 | 8.0 | 17.7 | 0.00 | 0.00 | 0.00 | 66 | 814.2 |
| 20260506104238 | 12 | 286 | 9.7 | 20.9 | 0.00 | 0.00 | 0.00 | 65 | 814.2 |
| 20260506104018 | 11 | 276 | 6.4 | 16.1 | 0.00 | 0.00 | 0.00 | 72 | 814.2 |
| 20260506103759 | 11 | 320 | 4.8 | 12.9 | 0.00 | 0.00 | 0.00 | 69 | 814.3 |
| 20260506103539 | 10 | 220 | 3.2 | 6.4 | 0.00 | 0.00 | 0.00 | 71 | 814.3 |
| 20260506103428 | 10 | 206 | 4.8 | 11.3 | 0.00 | 0.00 | 0.00 | 71 | 814.2 |
| 20260506103318 | 11 | 230 | 4.8 | 11.3 | 0.00 | 0.00 | 0.00 | 68 | 814.2 |
| 20260506103209 | 11 | 239 | 9.7 | 17.7 | 0.00 | 0.00 | 0.00 | 70 | 814.3 |
| 20260506103102 | 11 | 232 | 6.4 | 12.9 | 0.00 | 0.00 | 0.00 | 70 | 814.3 |
| 20260506102839 | 10 | 277 | 6.4 | 12.9 | 0.00 | 0.00 | 0.00 | 72 | 814.3 |
| 20260506102729 | 10 | 90 | 3.2 | 9.7 | 0.00 | 0.00 | 0.00 | 72 | 814.3 |
| 20260506102618 | 10 | 181 | 1.6 | 6.4 | 0.00 | 0.00 | 0.00 | 72 | 814.3 |
| 20260506102358 | 10 | 272 | 3.2 | 8.0 | 0.00 | 0.00 | 0.00 | 72 | 814.3 |
| 20260506102248 | 10 | 283 | 3.2 | 6.4 | 0.00 | 0.00 | 0.00 | 72 | 814.3 |
| 20260506102028 | 10 | 195 | 3.2 | 6.4 | 0.00 | 0.00 | 0.00 | 72 | 814.3 |
| 20260506101918 | 10 | 195 | 4.8 | 9.7 | 0.00 | 0.00 | 0.00 | 72 | 814.2 |
| 20260506101808 | 10 | 222 | 6.4 | 11.3 | 0.00 | 0.00 | 0.00 | 72 | 814.3 |
| 20260506101658 | 10 | 220 | 6.4 | 9.7 | 0.00 | 0.00 | 0.00 | 72 | 814.3 |
| 20260506101549 | 10 | 258 | 8.0 | 12.9 | 0.00 | 0.00 | 0.00 | 71 | 814.3 |
| 20260506101438 | 10 | 258 | 6.4 | 11.3 | 0.00 | 0.00 | 0.00 | 71 | 814.3 |
| 20260506101329 | 10 | 287 | 4.8 | 9.7 | 0.00 | 0.00 | 0.00 | 72 | 814.3 |
| 20260506101219 | 10 | 138 | 1.6 | 6.4 | 0.00 | 0.00 | 0.00 | 72 | 814.3 |
| 20260506101109 | 10 | 223 | 3.2 | 6.4 | 0.00 | 0.00 | 0.00 | 72 | 814.3 |
| 20260506100958 | 10 | 215 | 3.2 | 8.0 | 0.00 | 0.00 | 0.00 | 71 | 814.3 |
| 20260506100848 | 10 | 197 | 3.2 | 3.2 | 0.00 | 0.00 | 0.00 | 71 | 814.2 |
| 20260506100628 | 10 | 212 | 3.2 | 6.4 | 0.00 | 0.00 | 0.00 | 68 | 814.3 |
| 20260506100519 | 11 | 191 | 4.8 | 6.4 | 0.00 | 0.00 | 0.00 | 69 | 814.3 |
| 20260506100408 | 11 | 204 | 4.8 | 9.7 | 0.00 | 0.00 | 0.00 | 67 | 814.3 |
| 20260506100258 | 11 | 212 | 6.4 | 9.7 | 0.00 | 0.00 | 0.00 | 69 | 814.3 |
| 20260506100150 | 11 | 245 | 6.4 | 9.7 | 0.00 | 0.00 | 0.00 | 70 | 814.3 |
| 20260506095930 | 11 | 267 | 6.4 | 11.3 | 0.00 | 0.00 | 0.00 | 72 | 814.3 |
| 20260506095820 | 10 | 271 | 6.4 | 12.9 | 0.00 | 0.00 | 0.00 | 72 | 814.3 |
| 20260506095708 | 10 | 214 | 8.0 | 12.9 | 0.00 | 0.00 | 0.00 | 72 | 814.3 |
| 20260506095455 | 10 | 215 | 8.0 | 16.1 | 0.00 | 0.00 | 0.00 | 69 | 814.3 |
| 20260506095235 | 10 | 282 | 4.8 | 14.5 | 0.00 | 0.00 | 0.00 | 70 | 814.3 |
| 20260506095119 | 11 | 222 | 4.8 | 11.3 | 0.00 | 0.00 | 0.00 | 69 | 814.3 |
| 20260506095009 | 11 | 241 | 9.7 | 19.3 | 0.00 | 0.00 | 0.00 | 69 | 814.3 |
| 20260506094859 | 11 | 247 | 12.9 | 20.9 | 0.00 | 0.00 | 0.00 | 67 | 814.3 |
| 20260506094749 | 11 | 248 | 11.3 | 17.7 | 0.00 | 0.00 | 0.00 | 68 | 814.3 |
| 20260506094528 | 12 | 216 | 9.7 | 14.5 | 0.00 | 0.00 | 0.00 | 64 | 814.3 |
| 20260506094419 | 12 | 244 | 8.0 | 16.1 | 0.00 | 0.00 | 0.00 | 65 | 814.3 |
| 20260506094308 | 12 | 245 | 6.4 | 12.9 | 0.00 | 0.00 | 0.00 | 65 | 814.3 |
| 20260506094159 | 12 | 270 | 6.4 | 17.7 | 0.00 | 0.00 | 0.00 | 64 | 814.3 |
| 20260506094048 | 12 | 301 | 8.0 | 16.1 | 0.00 | 0.00 | 0.00 | 65 | 814.3 |
| 20260506093938 | 12 | 256 | 6.4 | 11.3 | 0.00 | 0.00 | 0.00 | 68 | 814.3 |
| 20260506093828 | 11 | 298 | 6.4 | 14.5 | 0.00 | 0.00 | 0.00 | 68 | 814.3 |
| 20260506093719 | 11 | 241 | 6.4 | 11.3 | 0.00 | 0.00 | 0.00 | 66 | 814.3 |
| 20260506093609 | 11 | 240 | 3.2 | 9.7 | 0.00 | 0.00 | 0.00 | 63 | 814.3 |
| 20260506093348 | 11 | 245 | 4.8 | 11.3 | 0.00 | 0.00 | 0.00 | 66 | 814.3 |
| 20260506093239 | 11 | 305 | 4.8 | 12.9 | 0.00 | 0.00 | 0.00 | 68 | 814.3 |
| 20260506093128 | 11 | 233 | 4.8 | 20.9 | 0.00 | 0.00 | 0.00 | 66 | 814.3 |
| 20260506093019 | 11 | 174 | 3.2 | 9.7 | 0.00 | 0.00 | 0.00 | 66 | 814.3 |
| 20260506092759 | 10 | 211 | 4.8 | 11.3 | 0.00 | 0.00 | 0.00 | 74 | 814.3 |
| 20260506092648 | 10 | 203 | 4.8 | 9.7 | 0.00 | 0.00 | 0.00 | 74 | 814.5 |
| 20260506092538 | 10 | 229 | 6.4 | 11.3 | 0.00 | 0.00 | 0.00 | 74 | 814.3 |
| 20260506092429 | 9 | 210 | 6.4 | 9.7 | 0.00 | 0.00 | 0.00 | 77 | 814.3 |
| 20260506092319 | 9 | 205 | 6.4 | 9.7 | 0.00 | 0.00 | 0.00 | 76 | 814.3 |
| 20260506092208 | 8 | 186 | 8.0 | 9.7 | 0.00 | 0.00 | 0.00 | 78 | 814.3 |
| 20260506092059 | 8 | 173 | 8.0 | 11.3 | 0.00 | 0.00 | 0.00 | 78 | 814.3 |
| 20260506091838 | 8 | 177 | 8.0 | 8.0 | 0.00 | 0.00 | 0.00 | 76 | 814.5 |
| 20260506091728 | 9 | 185 | 8.0 | 9.7 | 0.00 | 0.00 | 0.00 | 77 | 814.3 |
| 20260506091618 | 9 | 198 | 4.8 | 8.0 | 0.00 | 0.00 | 0.00 | 76 | 814.3 |
| 20260506091508 | 9 | 193 | 4.8 | 8.0 | 0.00 | 0.00 | 0.00 | 76 | 814.3 |
| 20260506091358 | 9 | 214 | 6.4 | 11.3 | 0.00 | 0.00 | 0.00 | 76 | 814.3 |
| 20260506091248 | 9 | 225 | 3.2 | 12.9 | 0.00 | 0.00 | 0.00 | 76 | 814.3 |
| 20260506091029 | 9 | 236 | 8.0 | 11.3 | 0.00 | 0.00 | 0.00 | 75 | 814.3 |
| 20260506090918 | 9 | 243 | 8.0 | 11.3 | 0.00 | 0.00 | 0.00 | 76 | 814.3 |
| 20260506090808 | 9 | 236 | 6.4 | 9.7 | 0.00 | 0.00 | 0.00 | 75 | 814.3 |
| 20260506090658 | 9 | 248 | 6.4 | 9.7 | 0.00 | 0.00 | 0.00 | 75 | 814.3 |
| 20260506090438 | 9 | 267 | 4.8 | 6.4 | 0.00 | 0.00 | 0.00 | 75 | 814.3 |
| 20260506090329 | 9 | 245 | 1.6 | 14.5 | 0.00 | 0.00 | 0.00 | 75 | 814.3 |
| 20260506090108 | 9 | 228 | 3.2 | 6.4 | 0.00 | 0.00 | 0.00 | 75 | 814.2 |
| 20260506085959 | 9 | 225 | 6.4 | 8.0 | 0.00 | 0.00 | 0.00 | 75 | 814.3 |
| 20260506085739 | 9 | 221 | 6.4 | 8.0 | 0.00 | 0.00 | 0.00 | 74 | 814.2 |
| 20260506085628 | 9 | 235 | 6.4 | 9.7 | 0.00 | 0.00 | 0.00 | 74 | 814.2 |
| 20260506085518 | 9 | 224 | 8.0 | 12.9 | 0.00 | 0.00 | 0.00 | 73 | 814.2 |
| 20260506085408 | 10 | 212 | 9.7 | 12.9 | 0.00 | 0.00 | 0.00 | 74 | 814.2 |
| 20260506085258 | 10 | 219 | 8.0 | 12.9 | 0.00 | 0.00 | 0.00 | 74 | 814.3 |
| 20260506085148 | 10 | 248 | 4.8 | 8.0 | 0.00 | 0.00 | 0.00 | 72 | 814.3 |
| 20260506085038 | 10 | 235 | 6.4 | 8.0 | 0.00 | 0.00 | 0.00 | 72 | 814.3 |
| 20260506084928 | 10 | 259 | 4.8 | 9.7 | 0.00 | 0.00 | 0.00 | 72 | 814.3 |
| 20260506084818 | 10 | 256 | 6.4 | 8.0 | 0.00 | 0.00 | 0.00 | 71 | 814.3 |
| 20260506084708 | 10 | 266 | 6.4 | 9.7 | 0.00 | 0.00 | 0.00 | 72 | 814.3 |
| 20260506084559 | 10 | 268 | 4.8 | 8.0 | 0.00 | 0.00 | 0.00 | 70 | 814.3 |
| 20260506084339 | 10 | 280 | 6.4 | 9.7 | 0.00 | 0.00 | 0.00 | 70 | 814.3 |
| 20260506084119 | 10 | 186 | 3.2 | 6.4 | 0.00 | 0.00 | 0.00 | 71 | 814.3 |
| 20260506084008 | 10 | 250 | 3.2 | 6.4 | 0.00 | 0.00 | 0.00 | 69 | 814.3 |
| 20260506083858 | 10 | 209 | 3.2 | 6.4 | 0.00 | 0.00 | 0.00 | 69 | 814.3 |
| 20260506083748 | 10 | 281 | 6.4 | 9.7 | 0.00 | 0.00 | 0.00 | 70 | 814.3 |
| 20260506083638 | 10 | 239 | 4.8 | 9.7 | 0.00 | 0.00 | 0.00 | 68 | 814.2 |
| 20260506083528 | 11 | 273 | 4.8 | 9.7 | 0.00 | 0.00 | 0.00 | 68 | 814.3 |
| 20260506083308 | 11 | 307 | 1.6 | 4.8 | 0.00 | 0.00 | 0.00 | 68 | 814.2 |
| 20260506083158 | 11 | 207 | 4.8 | 8.0 | 0.00 | 0.00 | 0.00 | 68 | 814.2 |
| 20260506083048 | 11 | 280 | 3.2 | 6.4 | 0.00 | 0.00 | 0.00 | 69 | 814.2 |
| 20260506082938 | 11 | 236 | 3.2 | 6.4 | 0.00 | 0.00 | 0.00 | 70 | 814.2 |
| 20260506082718 | 10 | 220 | 4.8 | 11.3 | 0.00 | 0.00 | 0.00 | 72 | 814.2 |
| 20260506082609 | 10 | 333 | 1.6 | 4.8 | 0.00 | 0.00 | 0.00 | 69 | 814.2 |
| 20260506082458 | 10 | 271 | 3.2 | 6.4 | 0.00 | 0.00 | 0.00 | 70 | 814.2 |
| 20260506082348 | 10 | 340 | 1.6 | 3.2 | 0.00 | 0.00 | 0.00 | 71 | 814.2 |
| 20260506082238 | 10 | 330 | 1.6 | 4.8 | 0.00 | 0.00 | 0.00 | 70 | 814.2 |
| 20260506082018 | 10 | 293 | 4.8 | 8.0 | 0.00 | 0.00 | 0.00 | 70 | 814.2 |
| 20260506081908 | 10 | 316 | 4.8 | 9.7 | 0.00 | 0.00 | 0.00 | 70 | 814.2 |
| 20260506081759 | 10 | 205 | 8.0 | 16.1 | 0.00 | 0.00 | 0.00 | 71 | 814.2 |
| 20260506081648 | 10 | 118 | 12.9 | 22.5 | 0.00 | 0.00 | 0.00 | 66 | 814.2 |
| 20260506081538 | 10 | 90 | 8.0 | 16.1 | 0.00 | 0.00 | 0.00 | 62 | 814.2 |
| 20260506081428 | 11 | 60 | 6.4 | 9.7 | 0.00 | 0.00 | 0.00 | 64 | 814.2 |
| 20260506081318 | 11 | 167 | 6.4 | 12.9 | 0.00 | 0.00 | 0.00 | 66 | 814.2 |
| 20260506081208 | 11 | 148 | 3.2 | 8.0 | 0.00 | 0.00 | 0.00 | 60 | 814.2 |
| 20260506080948 | 11 | 100 | 1.6 | 6.4 | 0.00 | 0.00 | 0.00 | 64 | 814.2 |
| 20260506080838 | 10 | 129 | 6.4 | 11.3 | 0.00 | 0.00 | 0.00 | 66 | 814.2 |
| 20260506080729 | 10 | 117 | 9.7 | 12.9 | 0.00 | 0.00 | 0.00 | 64 | 814.2 |
| 20260506080618 | 10 | 120 | 9.7 | 16.1 | 0.00 | 0.00 | 0.00 | 69 | 814.1 |
| 20260506080508 | 10 | 94 | 11.3 | 20.9 | 0.00 | 0.00 | 0.00 | 66 | 814.1 |
| 20260506080358 | 10 | 106 | 4.8 | 9.7 | 0.00 | 0.00 | 0.00 | 66 | 814.2 |
| 20260506080248 | 10 | 147 | 6.4 | 8.0 | 0.00 | 0.00 | 0.00 | 70 | 814.2 |
| 20260506080138 | 10 | 222 | 8.0 | 11.3 | 0.00 | 0.00 | 0.00 | 70 | 814.2 |
| 20260506073448 | 10 | 0 | 9.7 | 12.9 | 0.00 | 0.00 | 0.00 | 61 | 814.2 |
| 20260506073338 | 10 | 0 | 6.4 | 8.0 | 0.00 | 0.00 | 0.00 | 61 | 814.2 |
| 20260506073228 | 11 | 332 | 8.0 | 12.9 | 0.00 | 0.00 | 0.00 | 58 | 814.2 |
| 20260506073118 | 11 | 350 | 4.8 | 11.3 | 0.00 | 0.00 | 0.00 | 58 | 813.9 |
| 20260506072858 | 11 | 99 | 9.7 | 17.7 | 0.00 | 0.00 | 0.00 | 57 | 814.1 |
| 20260506072638 | 11 | 101 | 11.3 | 17.7 | 0.00 | 0.00 | 0.00 | 58 | 814.1 |
| 20260506072528 | 11 | 70 | 14.5 | 20.9 | 0.00 | 0.00 | 0.00 | 55 | 813.9 |
| 20260506072418 | 11 | 95 | 6.4 | 12.9 | 0.00 | 0.00 | 0.00 | 57 | 814.1 |
| 20260506072308 | 11 | 173 | 3.2 | 9.7 | 0.00 | 0.00 | 0.00 | 58 | 814.1 |
| 20260506072158 | 11 | 0 | 3.2 | 6.4 | 0.00 | 0.00 | 0.00 | 61 | 813.9 |
| 20260506071938 | 10 | 46 | 6.4 | 12.9 | 0.00 | 0.00 | 0.00 | 60 | 814.1 |
| 20260506071828 | 10 | 296 | 4.8 | 8.0 | 0.00 | 0.00 | 0.00 | 56 | 814.1 |
| 20260506071718 | 10 | 309 | 3.2 | 6.4 | 0.00 | 0.00 | 0.00 | 57 | 813.9 |
| 20260506071608 | 10 | 45 | 1.6 | 4.8 | 0.00 | 0.00 | 0.00 | 56 | 813.9 |
| 20260506071348 | 10 | 3 | 8.0 | 14.5 | 0.00 | 0.00 | 0.00 | 55 | 813.9 |
| 20260506071238 | 11 | 347 | 8.0 | 12.9 | 0.00 | 0.00 | 0.00 | 59 | 813.9 |
| 20260506071128 | 11 | 309 | 4.8 | 8.0 | 0.00 | 0.00 | 0.00 | 58 | 813.9 |
| 20260506071018 | 11 | 205 | 3.2 | 8.0 | 0.00 | 0.00 | 0.00 | 55 | 813.9 |
| 20260506070758 | 11 | 138 | 6.4 | 17.7 | 0.00 | 0.00 | 0.00 | 58 | 813.9 |
| 20260506070648 | 11 | 284 | 3.2 | 9.7 | 0.00 | 0.00 | 0.00 | 57 | 813.9 |
| 20260506070538 | 10 | 28 | 4.8 | 14.5 | 0.00 | 0.00 | 0.00 | 57 | 813.9 |
| 20260506070428 | 10 | 356 | 8.0 | 12.9 | 0.00 | 0.00 | 0.00 | 56 | 813.8 |
| 20260506070208 | 10 | 22 | 3.2 | 6.4 | 0.00 | 0.00 | 0.00 | 55 | 813.8 |
| 20260506062338 | 10 | 31 | 6.4 | 9.7 | 0.00 | 0.00 | 0.00 | 56 | 813.8 |
| 20260506062228 | 10 | 69 | 4.8 | 9.7 | 0.00 | 0.00 | 0.00 | 55 | 813.8 |
| 20260506062118 | 10 | 33 | 8.0 | 17.7 | 0.00 | 0.00 | 0.00 | 54 | 813.8 |
| 20260506062008 | 10 | 67 | 11.3 | 16.1 | 0.00 | 0.00 | 0.00 | 55 | 813.8 |
| 20260506061859 | 10 | 65 | 9.7 | 12.9 | 0.00 | 0.00 | 0.00 | 57 | 813.8 |
| 20260506061748 | 10 | 104 | 6.4 | 12.9 | 0.00 | 0.00 | 0.00 | 57 | 813.8 |
| 20260506061638 | 10 | 64 | 3.2 | 6.4 | 0.00 | 0.00 | 0.00 | 57 | 813.8 |
| 20260506061528 | 10 | 79 | 4.8 | 8.0 | 0.00 | 0.00 | 0.00 | 56 | 813.8 |
| 20260506061418 | 10 | 67 | 6.4 | 11.3 | 0.00 | 0.00 | 0.00 | 56 | 813.8 |
| 20260506061308 | 9 | 80 | 6.4 | 11.3 | 0.00 | 0.00 | 0.00 | 57 | 813.8 |
| 20260506061158 | 9 | 75 | 4.8 | 9.7 | 0.00 | 0.00 | 0.00 | 58 | 813.8 |
| 20260506061048 | 9 | 60 | 6.4 | 11.3 | 0.00 | 0.00 | 0.00 | 59 | 813.8 |
| 20260506060938 | 9 | 73 | 9.7 | 14.5 | 0.00 | 0.00 | 0.00 | 57 | 813.8 |
| 20260506060828 | 9 | 35 | 12.9 | 17.7 | 0.00 | 0.00 | 0.00 | 58 | 813.8 |
| 20260506060718 | 9 | 23 | 11.3 | 19.3 | 0.00 | 0.00 | 0.00 | 55 | 813.8 |
| 20260506060458 | 9 | 38 | 12.9 | 24.1 | 0.00 | 0.00 | 0.00 | 56 | 813.7 |
| 20260506060348 | 9 | 80 | 11.3 | 17.7 | 0.00 | 0.00 | 0.00 | 57 | 813.8 |
| 20260506060238 | 9 | 49 | 8.0 | 14.5 | 0.00 | 0.00 | 0.00 | 58 | 813.7 |
| 20260506060128 | 9 | 16 | 12.9 | 19.3 | 0.00 | 0.00 | 0.00 | 57 | 813.7 |